<?xml version="1.0" encoding="UTF-8" standalone="no" ?>
<gpx xmlns="http://www.topografix.com/GPX/1/1" xmlns:xsi="http://www.w3.org/2001/XMLSchema-instance" xsi:schemaLocation="http://www.topografix.com/GPX/1/1 http://www.topografix.com/GPX/1/1/gpx.xsd" version="1.1" creator="VisuGPX - https://www.visugpx.com">
  <metadata>
    <name>Parcours VTT FFC Saillans</name>
  </metadata>
  <trk>
    <name><![CDATA[VTT  N°11 rouge - Col de Gerbe -16km - déniv 380m -VAE Bleu]]></name>
    <extensions>
      <line xmlns="http://www.topografix.com/GPX/gpx_style/0/2">
        <color>f90025</color>
        <width>4</width>
      </line>
    </extensions>
    <trkseg>
      <trkpt lat="44.72454" lon="5.18687">
        <ele>535</ele>
        <time>2022-12-03T08:49:01Z</time>
      </trkpt>
      <trkpt lat="44.72497" lon="5.18634">
        <ele>535</ele>
        <time>2022-12-03T08:49:01Z</time>
      </trkpt>
      <trkpt lat="44.72539" lon="5.1858">
        <ele>535</ele>
        <time>2022-12-03T08:49:01Z</time>
      </trkpt>
      <trkpt lat="44.72605" lon="5.18563">
        <ele>535</ele>
        <time>2022-12-03T08:49:01Z</time>
      </trkpt>
      <trkpt lat="44.72625" lon="5.18473">
        <ele>535</ele>
        <time>2022-12-03T08:49:01Z</time>
      </trkpt>
      <trkpt lat="44.7266" lon="5.18393">
        <ele>535</ele>
        <time>2022-12-03T08:49:01Z</time>
      </trkpt>
      <trkpt lat="44.72712" lon="5.18353">
        <ele>535</ele>
        <time>2022-12-03T08:49:01Z</time>
      </trkpt>
      <trkpt lat="44.72744" lon="5.18301">
        <ele>535</ele>
        <time>2022-12-03T08:49:01Z</time>
      </trkpt>
      <trkpt lat="44.7285" lon="5.18203">
        <ele>535</ele>
        <time>2022-12-03T08:49:01Z</time>
      </trkpt>
      <trkpt lat="44.72899" lon="5.18237">
        <ele>535</ele>
        <time>2022-12-03T08:49:01Z</time>
      </trkpt>
      <trkpt lat="44.72991" lon="5.18142">
        <ele>535</ele>
        <time>2022-12-03T08:49:01Z</time>
      </trkpt>
      <trkpt lat="44.73026" lon="5.18245">
        <ele>535</ele>
        <time>2022-12-03T08:49:01Z</time>
      </trkpt>
      <trkpt lat="44.73023" lon="5.18443">
        <ele>535</ele>
        <time>2022-12-03T08:49:01Z</time>
      </trkpt>
      <trkpt lat="44.73072" lon="5.18469">
        <ele>535</ele>
        <time>2022-12-03T08:49:01Z</time>
      </trkpt>
      <trkpt lat="44.73119" lon="5.18505">
        <ele>535</ele>
        <time>2022-12-03T08:49:01Z</time>
      </trkpt>
      <trkpt lat="44.73125" lon="5.18402">
        <ele>536</ele>
        <time>2022-12-03T08:49:01Z</time>
      </trkpt>
      <trkpt lat="44.73174" lon="5.18353">
        <ele>536</ele>
        <time>2022-12-03T08:49:01Z</time>
      </trkpt>
      <trkpt lat="44.7321" lon="5.1834">
        <ele>536</ele>
        <time>2022-12-03T08:49:01Z</time>
      </trkpt>
      <trkpt lat="44.73239" lon="5.18308">
        <ele>536</ele>
        <time>2022-12-03T08:49:01Z</time>
      </trkpt>
      <trkpt lat="44.7325" lon="5.18136">
        <ele>536</ele>
        <time>2022-12-03T08:49:01Z</time>
      </trkpt>
      <trkpt lat="44.73268" lon="5.18042">
        <ele>536</ele>
        <time>2022-12-03T08:49:01Z</time>
      </trkpt>
      <trkpt lat="44.73303" lon="5.17979">
        <ele>536</ele>
        <time>2022-12-03T08:49:01Z</time>
      </trkpt>
      <trkpt lat="44.7335" lon="5.17956">
        <ele>536</ele>
        <time>2022-12-03T08:49:01Z</time>
      </trkpt>
      <trkpt lat="44.73383" lon="5.18057">
        <ele>536</ele>
        <time>2022-12-03T08:49:01Z</time>
      </trkpt>
      <trkpt lat="44.73428" lon="5.18016">
        <ele>537</ele>
        <time>2022-12-03T08:49:01Z</time>
      </trkpt>
      <trkpt lat="44.73443" lon="5.18036">
        <ele>537</ele>
        <time>2022-12-03T08:49:01Z</time>
      </trkpt>
      <trkpt lat="44.73459" lon="5.18057">
        <ele>538</ele>
        <time>2022-12-03T08:49:01Z</time>
      </trkpt>
      <trkpt lat="44.73501" lon="5.18059">
        <ele>538</ele>
        <time>2022-12-03T08:49:01Z</time>
      </trkpt>
      <trkpt lat="44.73628" lon="5.18016">
        <ele>538</ele>
        <time>2022-12-03T08:49:01Z</time>
      </trkpt>
      <trkpt lat="44.73697" lon="5.18063">
        <ele>538</ele>
        <time>2022-12-03T08:49:01Z</time>
      </trkpt>
      <trkpt lat="44.73754" lon="5.18135">
        <ele>539</ele>
        <time>2022-12-03T08:49:01Z</time>
      </trkpt>
      <trkpt lat="44.73748" lon="5.1812">
        <ele>538</ele>
        <time>2022-12-03T08:49:01Z</time>
      </trkpt>
      <trkpt lat="44.7376" lon="5.18149">
        <ele>539</ele>
        <time>2022-12-03T08:49:01Z</time>
      </trkpt>
      <trkpt lat="44.73773" lon="5.18162">
        <ele>540</ele>
        <time>2022-12-03T08:49:01Z</time>
      </trkpt>
      <trkpt lat="44.73782" lon="5.18166">
        <ele>541</ele>
        <time>2022-12-03T08:49:01Z</time>
      </trkpt>
      <trkpt lat="44.73789" lon="5.18173">
        <ele>541</ele>
        <time>2022-12-03T08:49:01Z</time>
      </trkpt>
      <trkpt lat="44.73798" lon="5.18176">
        <ele>542</ele>
        <time>2022-12-03T08:49:01Z</time>
      </trkpt>
      <trkpt lat="44.73811" lon="5.1819">
        <ele>542</ele>
        <time>2022-12-03T08:49:01Z</time>
      </trkpt>
      <trkpt lat="44.73838" lon="5.182">
        <ele>545</ele>
        <time>2022-12-03T08:49:01Z</time>
      </trkpt>
      <trkpt lat="44.73844" lon="5.18207">
        <ele>545</ele>
        <time>2022-12-03T08:49:01Z</time>
      </trkpt>
      <trkpt lat="44.73849" lon="5.18217">
        <ele>545</ele>
        <time>2022-12-03T08:49:01Z</time>
      </trkpt>
      <trkpt lat="44.73855" lon="5.18223">
        <ele>546</ele>
        <time>2022-12-03T08:49:01Z</time>
      </trkpt>
      <trkpt lat="44.73859" lon="5.18233">
        <ele>545</ele>
        <time>2022-12-03T08:49:01Z</time>
      </trkpt>
      <trkpt lat="44.73873" lon="5.18246">
        <ele>547</ele>
        <time>2022-12-03T08:49:01Z</time>
      </trkpt>
      <trkpt lat="44.73885" lon="5.18275">
        <ele>548</ele>
        <time>2022-12-03T08:49:01Z</time>
      </trkpt>
      <trkpt lat="44.73889" lon="5.18301">
        <ele>546</ele>
        <time>2022-12-03T08:49:01Z</time>
      </trkpt>
      <trkpt lat="44.73893" lon="5.18311">
        <ele>547</ele>
        <time>2022-12-03T08:49:01Z</time>
      </trkpt>
      <trkpt lat="44.73895" lon="5.18323">
        <ele>546</ele>
        <time>2022-12-03T08:49:01Z</time>
      </trkpt>
      <trkpt lat="44.73895" lon="5.18336">
        <ele>545</ele>
        <time>2022-12-03T08:49:01Z</time>
      </trkpt>
      <trkpt lat="44.73897" lon="5.18349">
        <ele>544</ele>
        <time>2022-12-03T08:49:01Z</time>
      </trkpt>
      <trkpt lat="44.73897" lon="5.18361">
        <ele>542</ele>
        <time>2022-12-03T08:49:01Z</time>
      </trkpt>
      <trkpt lat="44.73901" lon="5.18371">
        <ele>542</ele>
        <time>2022-12-03T08:49:01Z</time>
      </trkpt>
      <trkpt lat="44.73903" lon="5.18384">
        <ele>540</ele>
        <time>2022-12-03T08:49:01Z</time>
      </trkpt>
      <trkpt lat="44.73909" lon="5.1839">
        <ele>541</ele>
        <time>2022-12-03T08:49:01Z</time>
      </trkpt>
      <trkpt lat="44.73914" lon="5.184">
        <ele>540</ele>
        <time>2022-12-03T08:49:01Z</time>
      </trkpt>
      <trkpt lat="44.7392" lon="5.18407">
        <ele>541</ele>
        <time>2022-12-03T08:49:01Z</time>
      </trkpt>
      <trkpt lat="44.73929" lon="5.1841">
        <ele>542</ele>
        <time>2022-12-03T08:49:01Z</time>
      </trkpt>
      <trkpt lat="44.73942" lon="5.18424">
        <ele>543</ele>
        <time>2022-12-03T08:49:01Z</time>
      </trkpt>
      <trkpt lat="44.73946" lon="5.18433">
        <ele>542</ele>
        <time>2022-12-03T08:49:01Z</time>
      </trkpt>
      <trkpt lat="44.73953" lon="5.1844">
        <ele>543</ele>
        <time>2022-12-03T08:49:01Z</time>
      </trkpt>
      <trkpt lat="44.73962" lon="5.18459">
        <ele>542</ele>
        <time>2022-12-03T08:49:01Z</time>
      </trkpt>
      <trkpt lat="44.73963" lon="5.18472">
        <ele>541</ele>
        <time>2022-12-03T08:49:01Z</time>
      </trkpt>
      <trkpt lat="44.73963" lon="5.18485">
        <ele>541</ele>
        <time>2022-12-03T08:49:01Z</time>
      </trkpt>
      <trkpt lat="44.73958" lon="5.18494">
        <ele>539</ele>
        <time>2022-12-03T08:49:01Z</time>
      </trkpt>
      <trkpt lat="44.73949" lon="5.18512">
        <ele>536</ele>
        <time>2022-12-03T08:49:01Z</time>
      </trkpt>
      <trkpt lat="44.73946" lon="5.18525">
        <ele>535</ele>
        <time>2022-12-03T08:49:01Z</time>
      </trkpt>
      <trkpt lat="44.73946" lon="5.1855">
        <ele>535</ele>
        <time>2022-12-03T08:49:01Z</time>
      </trkpt>
      <trkpt lat="44.73948" lon="5.18563">
        <ele>536</ele>
        <time>2022-12-03T08:49:01Z</time>
      </trkpt>
      <trkpt lat="44.73952" lon="5.18572">
        <ele>537</ele>
        <time>2022-12-03T08:49:01Z</time>
      </trkpt>
      <trkpt lat="44.73954" lon="5.18585">
        <ele>537</ele>
        <time>2022-12-03T08:49:01Z</time>
      </trkpt>
      <trkpt lat="44.73958" lon="5.18595">
        <ele>538</ele>
        <time>2022-12-03T08:49:01Z</time>
      </trkpt>
      <trkpt lat="44.73965" lon="5.18601">
        <ele>539</ele>
        <time>2022-12-03T08:49:01Z</time>
      </trkpt>
      <trkpt lat="44.74009" lon="5.1862">
        <ele>544</ele>
        <time>2022-12-03T08:49:01Z</time>
      </trkpt>
      <trkpt lat="44.74027" lon="5.18627">
        <ele>547</ele>
        <time>2022-12-03T08:49:01Z</time>
      </trkpt>
      <trkpt lat="44.74027" lon="5.18639">
        <ele>543</ele>
        <time>2022-12-03T08:49:01Z</time>
      </trkpt>
      <trkpt lat="44.74026" lon="5.18652">
        <ele>539</ele>
        <time>2022-12-03T08:49:01Z</time>
      </trkpt>
      <trkpt lat="44.74035" lon="5.18671">
        <ele>537</ele>
        <time>2022-12-03T08:49:01Z</time>
      </trkpt>
      <trkpt lat="44.74039" lon="5.18681">
        <ele>535</ele>
        <time>2022-12-03T08:49:01Z</time>
      </trkpt>
      <trkpt lat="44.74046" lon="5.18688">
        <ele>535</ele>
        <time>2022-12-03T08:49:01Z</time>
      </trkpt>
      <trkpt lat="44.74055" lon="5.18691">
        <ele>536</ele>
        <time>2022-12-03T08:49:01Z</time>
      </trkpt>
      <trkpt lat="44.74059" lon="5.18701">
        <ele>534</ele>
        <time>2022-12-03T08:49:01Z</time>
      </trkpt>
      <trkpt lat="44.74072" lon="5.18714">
        <ele>533</ele>
        <time>2022-12-03T08:49:01Z</time>
      </trkpt>
      <trkpt lat="44.74076" lon="5.18724">
        <ele>531</ele>
        <time>2022-12-03T08:49:01Z</time>
      </trkpt>
      <trkpt lat="44.74085" lon="5.18728">
        <ele>531</ele>
        <time>2022-12-03T08:49:01Z</time>
      </trkpt>
      <trkpt lat="44.74098" lon="5.18741">
        <ele>530</ele>
        <time>2022-12-03T08:49:01Z</time>
      </trkpt>
      <trkpt lat="44.74107" lon="5.1876">
        <ele>529</ele>
        <time>2022-12-03T08:49:01Z</time>
      </trkpt>
      <trkpt lat="44.74109" lon="5.18773">
        <ele>527</ele>
        <time>2022-12-03T08:49:01Z</time>
      </trkpt>
      <trkpt lat="44.74134" lon="5.18834">
        <ele>528</ele>
        <time>2022-12-03T08:49:01Z</time>
      </trkpt>
      <trkpt lat="44.74154" lon="5.18854">
        <ele>530</ele>
        <time>2022-12-03T08:49:01Z</time>
      </trkpt>
      <trkpt lat="44.74163" lon="5.18861">
        <ele>532</ele>
        <time>2022-12-03T08:49:01Z</time>
      </trkpt>
      <trkpt lat="44.74169" lon="5.18868">
        <ele>534</ele>
        <time>2022-12-03T08:49:01Z</time>
      </trkpt>
      <trkpt lat="44.74193" lon="5.18916">
        <ele>537</ele>
        <time>2022-12-03T08:49:01Z</time>
      </trkpt>
      <trkpt lat="44.74212" lon="5.18936">
        <ele>540</ele>
        <time>2022-12-03T08:49:01Z</time>
      </trkpt>
      <trkpt lat="44.74221" lon="5.1894">
        <ele>541</ele>
        <time>2022-12-03T08:49:01Z</time>
      </trkpt>
      <trkpt lat="44.74228" lon="5.18934">
        <ele>543</ele>
        <time>2022-12-03T08:49:01Z</time>
      </trkpt>
      <trkpt lat="44.74224" lon="5.18908">
        <ele>546</ele>
        <time>2022-12-03T08:49:01Z</time>
      </trkpt>
      <trkpt lat="44.7422" lon="5.18899">
        <ele>546</ele>
        <time>2022-12-03T08:49:01Z</time>
      </trkpt>
      <trkpt lat="44.74214" lon="5.18892">
        <ele>545</ele>
        <time>2022-12-03T08:49:01Z</time>
      </trkpt>
      <trkpt lat="44.7419" lon="5.18843">
        <ele>543</ele>
        <time>2022-12-03T08:49:01Z</time>
      </trkpt>
      <trkpt lat="44.74188" lon="5.18831">
        <ele>544</ele>
        <time>2022-12-03T08:49:01Z</time>
      </trkpt>
      <trkpt lat="44.74182" lon="5.18824">
        <ele>543</ele>
        <time>2022-12-03T08:49:01Z</time>
      </trkpt>
      <trkpt lat="44.74178" lon="5.18799">
        <ele>545</ele>
        <time>2022-12-03T08:49:01Z</time>
      </trkpt>
      <trkpt lat="44.74178" lon="5.18773">
        <ele>548</ele>
        <time>2022-12-03T08:49:01Z</time>
      </trkpt>
      <trkpt lat="44.74187" lon="5.18774">
        <ele>551</ele>
        <time>2022-12-03T08:49:01Z</time>
      </trkpt>
      <trkpt lat="44.74194" lon="5.1878">
        <ele>553</ele>
        <time>2022-12-03T08:49:01Z</time>
      </trkpt>
      <trkpt lat="44.74202" lon="5.188">
        <ele>553</ele>
        <time>2022-12-03T08:49:01Z</time>
      </trkpt>
      <trkpt lat="44.74209" lon="5.18806">
        <ele>554</ele>
        <time>2022-12-03T08:49:01Z</time>
      </trkpt>
      <trkpt lat="44.74211" lon="5.18819">
        <ele>553</ele>
        <time>2022-12-03T08:49:01Z</time>
      </trkpt>
      <trkpt lat="44.74217" lon="5.18829">
        <ele>554</ele>
        <time>2022-12-03T08:49:01Z</time>
      </trkpt>
      <trkpt lat="44.74231" lon="5.18842">
        <ele>557</ele>
        <time>2022-12-03T08:49:01Z</time>
      </trkpt>
      <trkpt lat="44.7424" lon="5.18846">
        <ele>560</ele>
        <time>2022-12-03T08:49:01Z</time>
      </trkpt>
      <trkpt lat="44.74288" lon="5.18893">
        <ele>565</ele>
        <time>2022-12-03T08:49:01Z</time>
      </trkpt>
      <trkpt lat="44.74306" lon="5.18894">
        <ele>568</ele>
        <time>2022-12-03T08:49:01Z</time>
      </trkpt>
      <trkpt lat="44.74313" lon="5.18891">
        <ele>570</ele>
        <time>2022-12-03T08:49:01Z</time>
      </trkpt>
      <trkpt lat="44.74322" lon="5.18888">
        <ele>572</ele>
        <time>2022-12-03T08:49:01Z</time>
      </trkpt>
      <trkpt lat="44.74331" lon="5.18885">
        <ele>575</ele>
        <time>2022-12-03T08:49:01Z</time>
      </trkpt>
      <trkpt lat="44.7434" lon="5.18883">
        <ele>577</ele>
        <time>2022-12-03T08:49:01Z</time>
      </trkpt>
      <trkpt lat="44.74349" lon="5.18883">
        <ele>579</ele>
        <time>2022-12-03T08:49:01Z</time>
      </trkpt>
      <trkpt lat="44.74358" lon="5.18884">
        <ele>582</ele>
        <time>2022-12-03T08:49:01Z</time>
      </trkpt>
      <trkpt lat="44.74367" lon="5.18884">
        <ele>584</ele>
        <time>2022-12-03T08:49:01Z</time>
      </trkpt>
      <trkpt lat="44.74385" lon="5.18891">
        <ele>587</ele>
        <time>2022-12-03T08:49:01Z</time>
      </trkpt>
      <trkpt lat="44.74394" lon="5.18895">
        <ele>589</ele>
        <time>2022-12-03T08:49:01Z</time>
      </trkpt>
      <trkpt lat="44.74402" lon="5.18898">
        <ele>592</ele>
        <time>2022-12-03T08:49:01Z</time>
      </trkpt>
      <trkpt lat="44.74411" lon="5.18899">
        <ele>596</ele>
        <time>2022-12-03T08:49:01Z</time>
      </trkpt>
      <trkpt lat="44.74416" lon="5.18909">
        <ele>595</ele>
        <time>2022-12-03T08:49:01Z</time>
      </trkpt>
      <trkpt lat="44.74415" lon="5.18921">
        <ele>593</ele>
        <time>2022-12-03T08:49:01Z</time>
      </trkpt>
      <trkpt lat="44.74419" lon="5.18947">
        <ele>590</ele>
        <time>2022-12-03T08:49:01Z</time>
      </trkpt>
      <trkpt lat="44.74428" lon="5.18966">
        <ele>590</ele>
        <time>2022-12-03T08:49:01Z</time>
      </trkpt>
      <trkpt lat="44.7443" lon="5.18979">
        <ele>589</ele>
        <time>2022-12-03T08:49:01Z</time>
      </trkpt>
      <trkpt lat="44.74438" lon="5.18998">
        <ele>591</ele>
        <time>2022-12-03T08:49:01Z</time>
      </trkpt>
      <trkpt lat="44.74445" lon="5.19005">
        <ele>594</ele>
        <time>2022-12-03T08:49:01Z</time>
      </trkpt>
      <trkpt lat="44.74447" lon="5.19017">
        <ele>593</ele>
        <time>2022-12-03T08:49:01Z</time>
      </trkpt>
      <trkpt lat="44.74453" lon="5.19027">
        <ele>595</ele>
        <time>2022-12-03T08:49:01Z</time>
      </trkpt>
      <trkpt lat="44.74466" lon="5.1906">
        <ele>597</ele>
        <time>2022-12-03T08:49:01Z</time>
      </trkpt>
      <trkpt lat="44.74476" lon="5.19079">
        <ele>600</ele>
        <time>2022-12-03T08:49:01Z</time>
      </trkpt>
      <trkpt lat="44.7448" lon="5.19104">
        <ele>599</ele>
        <time>2022-12-03T08:49:01Z</time>
      </trkpt>
      <trkpt lat="44.7448" lon="5.19117">
        <ele>597</ele>
        <time>2022-12-03T08:49:01Z</time>
      </trkpt>
      <trkpt lat="44.74488" lon="5.19168">
        <ele>596</ele>
        <time>2022-12-03T08:49:01Z</time>
      </trkpt>
      <trkpt lat="44.74496" lon="5.19187">
        <ele>599</ele>
        <time>2022-12-03T08:49:01Z</time>
      </trkpt>
      <trkpt lat="44.745" lon="5.192">
        <ele>601</ele>
        <time>2022-12-03T08:49:01Z</time>
      </trkpt>
      <trkpt lat="44.74502" lon="5.19213">
        <ele>602</ele>
        <time>2022-12-03T08:49:01Z</time>
      </trkpt>
      <trkpt lat="44.74507" lon="5.19223">
        <ele>604</ele>
        <time>2022-12-03T08:49:01Z</time>
      </trkpt>
      <trkpt lat="44.7451" lon="5.19248">
        <ele>605</ele>
        <time>2022-12-03T08:49:01Z</time>
      </trkpt>
      <trkpt lat="44.74496" lon="5.19276">
        <ele>603</ele>
        <time>2022-12-03T08:49:01Z</time>
      </trkpt>
      <trkpt lat="44.74489" lon="5.19282">
        <ele>601</ele>
        <time>2022-12-03T08:49:01Z</time>
      </trkpt>
      <trkpt lat="44.74475" lon="5.19309">
        <ele>601</ele>
        <time>2022-12-03T08:49:01Z</time>
      </trkpt>
      <trkpt lat="44.74472" lon="5.19322">
        <ele>602</ele>
        <time>2022-12-03T08:49:01Z</time>
      </trkpt>
      <trkpt lat="44.74472" lon="5.19347">
        <ele>602</ele>
        <time>2022-12-03T08:49:01Z</time>
      </trkpt>
      <trkpt lat="44.74476" lon="5.19357">
        <ele>605</ele>
        <time>2022-12-03T08:49:01Z</time>
      </trkpt>
      <trkpt lat="44.7448" lon="5.19366">
        <ele>608</ele>
        <time>2022-12-03T08:49:01Z</time>
      </trkpt>
      <trkpt lat="44.74482" lon="5.19379">
        <ele>610</ele>
        <time>2022-12-03T08:49:01Z</time>
      </trkpt>
      <trkpt lat="44.74486" lon="5.19389">
        <ele>612</ele>
        <time>2022-12-03T08:49:01Z</time>
      </trkpt>
      <trkpt lat="44.74491" lon="5.19399">
        <ele>615</ele>
        <time>2022-12-03T08:49:01Z</time>
      </trkpt>
      <trkpt lat="44.74495" lon="5.19408">
        <ele>618</ele>
        <time>2022-12-03T08:49:01Z</time>
      </trkpt>
      <trkpt lat="44.74502" lon="5.19415">
        <ele>622</ele>
        <time>2022-12-03T08:49:01Z</time>
      </trkpt>
      <trkpt lat="44.74506" lon="5.19425">
        <ele>625</ele>
        <time>2022-12-03T08:49:01Z</time>
      </trkpt>
      <trkpt lat="44.74505" lon="5.19437">
        <ele>625</ele>
        <time>2022-12-03T08:49:01Z</time>
      </trkpt>
      <trkpt lat="44.74507" lon="5.1945">
        <ele>626</ele>
        <time>2022-12-03T08:49:01Z</time>
      </trkpt>
      <trkpt lat="44.74502" lon="5.19475">
        <ele>625</ele>
        <time>2022-12-03T08:49:01Z</time>
      </trkpt>
      <trkpt lat="44.74502" lon="5.19488">
        <ele>625</ele>
        <time>2022-12-03T08:49:01Z</time>
      </trkpt>
      <trkpt lat="44.74504" lon="5.195">
        <ele>627</ele>
        <time>2022-12-03T08:49:01Z</time>
      </trkpt>
      <trkpt lat="44.74508" lon="5.1951">
        <ele>630</ele>
        <time>2022-12-03T08:49:01Z</time>
      </trkpt>
      <trkpt lat="44.74512" lon="5.1952">
        <ele>633</ele>
        <time>2022-12-03T08:49:01Z</time>
      </trkpt>
      <trkpt lat="44.74514" lon="5.19532">
        <ele>634</ele>
        <time>2022-12-03T08:49:01Z</time>
      </trkpt>
      <trkpt lat="44.74518" lon="5.19558">
        <ele>637</ele>
        <time>2022-12-03T08:49:01Z</time>
      </trkpt>
      <trkpt lat="44.74522" lon="5.19568">
        <ele>639</ele>
        <time>2022-12-03T08:49:01Z</time>
      </trkpt>
      <trkpt lat="44.74521" lon="5.19605">
        <ele>637</ele>
        <time>2022-12-03T08:49:01Z</time>
      </trkpt>
      <trkpt lat="44.74519" lon="5.19618">
        <ele>636</ele>
        <time>2022-12-03T08:49:01Z</time>
      </trkpt>
      <trkpt lat="44.74514" lon="5.19627">
        <ele>634</ele>
        <time>2022-12-03T08:49:01Z</time>
      </trkpt>
      <trkpt lat="44.74514" lon="5.1964">
        <ele>633</ele>
        <time>2022-12-03T08:49:01Z</time>
      </trkpt>
      <trkpt lat="44.74518" lon="5.19649">
        <ele>632</ele>
        <time>2022-12-03T08:49:01Z</time>
      </trkpt>
      <trkpt lat="44.74525" lon="5.19656">
        <ele>631</ele>
        <time>2022-12-03T08:49:01Z</time>
      </trkpt>
      <trkpt lat="44.74533" lon="5.1966">
        <ele>633</ele>
        <time>2022-12-03T08:49:01Z</time>
      </trkpt>
      <trkpt lat="44.7454" lon="5.19654">
        <ele>636</ele>
        <time>2022-12-03T08:49:01Z</time>
      </trkpt>
      <trkpt lat="44.74549" lon="5.19651">
        <ele>638</ele>
        <time>2022-12-03T08:49:01Z</time>
      </trkpt>
      <trkpt lat="44.7457" lon="5.19633">
        <ele>642</ele>
        <time>2022-12-03T08:49:01Z</time>
      </trkpt>
      <trkpt lat="44.74579" lon="5.1963">
        <ele>643</ele>
        <time>2022-12-03T08:49:01Z</time>
      </trkpt>
      <trkpt lat="44.74586" lon="5.19624">
        <ele>644</ele>
        <time>2022-12-03T08:49:01Z</time>
      </trkpt>
      <trkpt lat="44.74622" lon="5.19614">
        <ele>646</ele>
        <time>2022-12-03T08:49:01Z</time>
      </trkpt>
      <trkpt lat="44.7464" lon="5.19615">
        <ele>645</ele>
        <time>2022-12-03T08:49:01Z</time>
      </trkpt>
      <trkpt lat="44.74647" lon="5.19621">
        <ele>644</ele>
        <time>2022-12-03T08:49:01Z</time>
      </trkpt>
      <trkpt lat="44.74656" lon="5.19625">
        <ele>643</ele>
        <time>2022-12-03T08:49:01Z</time>
      </trkpt>
      <trkpt lat="44.74662" lon="5.19632">
        <ele>642</ele>
        <time>2022-12-03T08:49:01Z</time>
      </trkpt>
      <trkpt lat="44.74671" lon="5.19635">
        <ele>641</ele>
        <time>2022-12-03T08:49:01Z</time>
      </trkpt>
      <trkpt lat="44.74678" lon="5.19642">
        <ele>640</ele>
        <time>2022-12-03T08:49:01Z</time>
      </trkpt>
      <trkpt lat="44.74687" lon="5.19645">
        <ele>639</ele>
        <time>2022-12-03T08:49:01Z</time>
      </trkpt>
      <trkpt lat="44.74714" lon="5.19647">
        <ele>637</ele>
        <time>2022-12-03T08:49:01Z</time>
      </trkpt>
      <trkpt lat="44.74732" lon="5.19641">
        <ele>638</ele>
        <time>2022-12-03T08:49:01Z</time>
      </trkpt>
      <trkpt lat="44.74739" lon="5.19635">
        <ele>640</ele>
        <time>2022-12-03T08:49:01Z</time>
      </trkpt>
      <trkpt lat="44.74775" lon="5.19625">
        <ele>640</ele>
        <time>2022-12-03T08:49:01Z</time>
      </trkpt>
      <trkpt lat="44.74782" lon="5.19619">
        <ele>641</ele>
        <time>2022-12-03T08:49:01Z</time>
      </trkpt>
      <trkpt lat="44.74787" lon="5.19609">
        <ele>644</ele>
        <time>2022-12-03T08:49:01Z</time>
      </trkpt>
      <trkpt lat="44.74801" lon="5.19598">
        <ele>646</ele>
        <time>2022-12-03T08:49:01Z</time>
      </trkpt>
      <trkpt lat="44.74805" lon="5.19588">
        <ele>648</ele>
        <time>2022-12-03T08:49:01Z</time>
      </trkpt>
      <trkpt lat="44.74812" lon="5.19582">
        <ele>648</ele>
        <time>2022-12-03T08:49:01Z</time>
      </trkpt>
      <trkpt lat="44.74822" lon="5.19564">
        <ele>650</ele>
        <time>2022-12-03T08:49:01Z</time>
      </trkpt>
      <trkpt lat="44.74854" lon="5.19528">
        <ele>649</ele>
        <time>2022-12-03T08:49:01Z</time>
      </trkpt>
      <trkpt lat="44.74863" lon="5.19525">
        <ele>647</ele>
        <time>2022-12-03T08:49:01Z</time>
      </trkpt>
      <trkpt lat="44.74872" lon="5.19522">
        <ele>644</ele>
        <time>2022-12-03T08:49:01Z</time>
      </trkpt>
      <trkpt lat="44.74877" lon="5.19513">
        <ele>643</ele>
        <time>2022-12-03T08:49:01Z</time>
      </trkpt>
      <trkpt lat="44.74884" lon="5.19507">
        <ele>641</ele>
        <time>2022-12-03T08:49:01Z</time>
      </trkpt>
      <trkpt lat="44.74898" lon="5.19479">
        <ele>643</ele>
        <time>2022-12-03T08:49:01Z</time>
      </trkpt>
      <trkpt lat="44.74905" lon="5.19473">
        <ele>643</ele>
        <time>2022-12-03T08:49:01Z</time>
      </trkpt>
      <trkpt lat="44.7491" lon="5.19464">
        <ele>644</ele>
        <time>2022-12-03T08:49:01Z</time>
      </trkpt>
      <trkpt lat="44.74917" lon="5.19458">
        <ele>645</ele>
        <time>2022-12-03T08:49:01Z</time>
      </trkpt>
      <trkpt lat="44.74921" lon="5.19449">
        <ele>645</ele>
        <time>2022-12-03T08:49:01Z</time>
      </trkpt>
      <trkpt lat="44.74935" lon="5.19437">
        <ele>646</ele>
        <time>2022-12-03T08:49:01Z</time>
      </trkpt>
      <trkpt lat="44.74944" lon="5.19438">
        <ele>646</ele>
        <time>2022-12-03T08:49:01Z</time>
      </trkpt>
      <trkpt lat="44.74953" lon="5.19441">
        <ele>646</ele>
        <time>2022-12-03T08:49:01Z</time>
      </trkpt>
      <trkpt lat="44.7497" lon="5.19467">
        <ele>648</ele>
        <time>2022-12-03T08:49:01Z</time>
      </trkpt>
      <trkpt lat="44.74979" lon="5.19471">
        <ele>649</ele>
        <time>2022-12-03T08:49:01Z</time>
      </trkpt>
      <trkpt lat="44.74988" lon="5.19475">
        <ele>651</ele>
        <time>2022-12-03T08:49:01Z</time>
      </trkpt>
      <trkpt lat="44.74997" lon="5.19475">
        <ele>653</ele>
        <time>2022-12-03T08:49:01Z</time>
      </trkpt>
      <trkpt lat="44.75006" lon="5.19472">
        <ele>656</ele>
        <time>2022-12-03T08:49:01Z</time>
      </trkpt>
      <trkpt lat="44.75015" lon="5.1947">
        <ele>659</ele>
        <time>2022-12-03T08:49:01Z</time>
      </trkpt>
      <trkpt lat="44.75024" lon="5.19467">
        <ele>661</ele>
        <time>2022-12-03T08:49:01Z</time>
      </trkpt>
      <trkpt lat="44.75033" lon="5.19467">
        <ele>663</ele>
        <time>2022-12-03T08:49:01Z</time>
      </trkpt>
      <trkpt lat="44.75043" lon="5.19465">
        <ele>666</ele>
        <time>2022-12-03T08:49:01Z</time>
      </trkpt>
      <trkpt lat="44.75052" lon="5.19462">
        <ele>668</ele>
        <time>2022-12-03T08:49:01Z</time>
      </trkpt>
      <trkpt lat="44.7507" lon="5.19463">
        <ele>670</ele>
        <time>2022-12-03T08:49:01Z</time>
      </trkpt>
      <trkpt lat="44.75078" lon="5.19466">
        <ele>670</ele>
        <time>2022-12-03T08:49:01Z</time>
      </trkpt>
      <trkpt lat="44.75087" lon="5.19473">
        <ele>669</ele>
        <time>2022-12-03T08:49:01Z</time>
      </trkpt>
      <trkpt lat="44.75096" lon="5.19477">
        <ele>669</ele>
        <time>2022-12-03T08:49:01Z</time>
      </trkpt>
      <trkpt lat="44.75105" lon="5.19477">
        <ele>671</ele>
        <time>2022-12-03T08:49:01Z</time>
      </trkpt>
      <trkpt lat="44.75114" lon="5.19481">
        <ele>671</ele>
        <time>2022-12-03T08:49:01Z</time>
      </trkpt>
      <trkpt lat="44.75167" lon="5.19534">
        <ele>673</ele>
        <time>2022-12-03T08:49:01Z</time>
      </trkpt>
      <trkpt lat="44.75186" lon="5.19557">
        <ele>675</ele>
        <time>2022-12-03T08:49:01Z</time>
      </trkpt>
      <trkpt lat="44.75191" lon="5.19567">
        <ele>674</ele>
        <time>2022-12-03T08:49:01Z</time>
      </trkpt>
      <trkpt lat="44.75197" lon="5.19574">
        <ele>674</ele>
        <time>2022-12-03T08:49:01Z</time>
      </trkpt>
      <trkpt lat="44.75214" lon="5.19603">
        <ele>672</ele>
        <time>2022-12-03T08:49:01Z</time>
      </trkpt>
      <trkpt lat="44.75221" lon="5.1961">
        <ele>673</ele>
        <time>2022-12-03T08:49:01Z</time>
      </trkpt>
      <trkpt lat="44.75225" lon="5.19619">
        <ele>671</ele>
        <time>2022-12-03T08:49:01Z</time>
      </trkpt>
      <trkpt lat="44.75232" lon="5.19626">
        <ele>671</ele>
        <time>2022-12-03T08:49:01Z</time>
      </trkpt>
      <trkpt lat="44.75236" lon="5.19636">
        <ele>669</ele>
        <time>2022-12-03T08:49:01Z</time>
      </trkpt>
      <trkpt lat="44.75276" lon="5.19675">
        <ele>674</ele>
        <time>2022-12-03T08:49:01Z</time>
      </trkpt>
      <trkpt lat="44.75289" lon="5.19689">
        <ele>677</ele>
        <time>2022-12-03T08:49:01Z</time>
      </trkpt>
      <trkpt lat="44.75295" lon="5.19695">
        <ele>679</ele>
        <time>2022-12-03T08:49:01Z</time>
      </trkpt>
      <trkpt lat="44.75302" lon="5.19702">
        <ele>682</ele>
        <time>2022-12-03T08:49:01Z</time>
      </trkpt>
      <trkpt lat="44.75308" lon="5.19709">
        <ele>684</ele>
        <time>2022-12-03T08:49:01Z</time>
      </trkpt>
      <trkpt lat="44.75308" lon="5.19721">
        <ele>682</ele>
        <time>2022-12-03T08:49:01Z</time>
      </trkpt>
      <trkpt lat="44.75303" lon="5.19734">
        <ele>677</ele>
        <time>2022-12-03T08:49:01Z</time>
      </trkpt>
      <trkpt lat="44.75298" lon="5.19746">
        <ele>673</ele>
        <time>2022-12-03T08:49:01Z</time>
      </trkpt>
      <trkpt lat="44.75298" lon="5.19759">
        <ele>671</ele>
        <time>2022-12-03T08:49:01Z</time>
      </trkpt>
      <trkpt lat="44.75307" lon="5.19781">
        <ele>673</ele>
        <time>2022-12-03T08:49:01Z</time>
      </trkpt>
      <trkpt lat="44.75313" lon="5.19788">
        <ele>676</ele>
        <time>2022-12-03T08:49:01Z</time>
      </trkpt>
      <trkpt lat="44.7532" lon="5.19795">
        <ele>679</ele>
        <time>2022-12-03T08:49:01Z</time>
      </trkpt>
      <trkpt lat="44.75324" lon="5.19804">
        <ele>680</ele>
        <time>2022-12-03T08:49:01Z</time>
      </trkpt>
      <trkpt lat="44.75331" lon="5.19811">
        <ele>682</ele>
        <time>2022-12-03T08:49:01Z</time>
      </trkpt>
      <trkpt lat="44.7537" lon="5.19854">
        <ele>684</ele>
        <time>2022-12-03T08:49:01Z</time>
      </trkpt>
      <trkpt lat="44.75379" lon="5.19858">
        <ele>685</ele>
        <time>2022-12-03T08:49:01Z</time>
      </trkpt>
      <trkpt lat="44.75388" lon="5.19861">
        <ele>687</ele>
        <time>2022-12-03T08:49:01Z</time>
      </trkpt>
      <trkpt lat="44.75421" lon="5.19793">
        <ele>686</ele>
        <time>2022-12-03T08:49:01Z</time>
      </trkpt>
      <trkpt lat="44.7543" lon="5.19775">
        <ele>683</ele>
        <time>2022-12-03T08:49:01Z</time>
      </trkpt>
      <trkpt lat="44.75437" lon="5.19766">
        <ele>680</ele>
        <time>2022-12-03T08:49:01Z</time>
      </trkpt>
      <trkpt lat="44.75447" lon="5.19747">
        <ele>678</ele>
        <time>2022-12-03T08:49:01Z</time>
      </trkpt>
      <trkpt lat="44.75454" lon="5.19741">
        <ele>676</ele>
        <time>2022-12-03T08:49:01Z</time>
      </trkpt>
      <trkpt lat="44.75459" lon="5.19732">
        <ele>676</ele>
        <time>2022-12-03T08:49:01Z</time>
      </trkpt>
      <trkpt lat="44.75465" lon="5.19726">
        <ele>674</ele>
        <time>2022-12-03T08:49:01Z</time>
      </trkpt>
      <trkpt lat="44.75472" lon="5.1972">
        <ele>672</ele>
        <time>2022-12-03T08:49:01Z</time>
      </trkpt>
      <trkpt lat="44.75477" lon="5.19711">
        <ele>673</ele>
        <time>2022-12-03T08:49:01Z</time>
      </trkpt>
      <trkpt lat="44.75477" lon="5.19672">
        <ele>672</ele>
        <time>2022-12-03T08:49:01Z</time>
      </trkpt>
      <trkpt lat="44.75489" lon="5.19696">
        <ele>673</ele>
        <time>2022-12-03T08:49:01Z</time>
      </trkpt>
      <trkpt lat="44.75509" lon="5.19678">
        <ele>670</ele>
        <time>2022-12-03T08:49:01Z</time>
      </trkpt>
      <trkpt lat="44.75519" lon="5.19675">
        <ele>668</ele>
        <time>2022-12-03T08:49:01Z</time>
      </trkpt>
      <trkpt lat="44.75525" lon="5.19669">
        <ele>667</ele>
        <time>2022-12-03T08:49:01Z</time>
      </trkpt>
      <trkpt lat="44.75534" lon="5.1967">
        <ele>664</ele>
        <time>2022-12-03T08:49:01Z</time>
      </trkpt>
      <trkpt lat="44.75536" lon="5.19682">
        <ele>660</ele>
        <time>2022-12-03T08:49:01Z</time>
      </trkpt>
      <trkpt lat="44.75522" lon="5.1971">
        <ele>657</ele>
        <time>2022-12-03T08:49:01Z</time>
      </trkpt>
      <trkpt lat="44.75508" lon="5.19738">
        <ele>653</ele>
        <time>2022-12-03T08:49:01Z</time>
      </trkpt>
      <trkpt lat="44.75494" lon="5.19756">
        <ele>653</ele>
        <time>2022-12-03T08:49:01Z</time>
      </trkpt>
      <trkpt lat="44.75489" lon="5.19765">
        <ele>652</ele>
        <time>2022-12-03T08:49:01Z</time>
      </trkpt>
      <trkpt lat="44.75487" lon="5.19778">
        <ele>651</ele>
        <time>2022-12-03T08:49:01Z</time>
      </trkpt>
      <trkpt lat="44.75482" lon="5.19787">
        <ele>652</ele>
        <time>2022-12-03T08:49:01Z</time>
      </trkpt>
      <trkpt lat="44.75474" lon="5.19825">
        <ele>652</ele>
        <time>2022-12-03T08:49:01Z</time>
      </trkpt>
      <trkpt lat="44.75472" lon="5.19837">
        <ele>654</ele>
        <time>2022-12-03T08:49:01Z</time>
      </trkpt>
      <trkpt lat="44.75471" lon="5.1985">
        <ele>654</ele>
        <time>2022-12-03T08:49:01Z</time>
      </trkpt>
      <trkpt lat="44.75476" lon="5.19859">
        <ele>653</ele>
        <time>2022-12-03T08:49:01Z</time>
      </trkpt>
      <trkpt lat="44.75482" lon="5.19866">
        <ele>650</ele>
        <time>2022-12-03T08:49:01Z</time>
      </trkpt>
      <trkpt lat="44.75491" lon="5.19866">
        <ele>646</ele>
        <time>2022-12-03T08:49:01Z</time>
      </trkpt>
      <trkpt lat="44.755" lon="5.1987">
        <ele>642</ele>
        <time>2022-12-03T08:49:01Z</time>
      </trkpt>
      <trkpt lat="44.75509" lon="5.19871">
        <ele>639</ele>
        <time>2022-12-03T08:49:01Z</time>
      </trkpt>
      <trkpt lat="44.75518" lon="5.19871">
        <ele>635</ele>
        <time>2022-12-03T08:49:01Z</time>
      </trkpt>
      <trkpt lat="44.75527" lon="5.19871">
        <ele>632</ele>
        <time>2022-12-03T08:49:01Z</time>
      </trkpt>
      <trkpt lat="44.75536" lon="5.19875">
        <ele>629</ele>
        <time>2022-12-03T08:49:01Z</time>
      </trkpt>
      <trkpt lat="44.75545" lon="5.19879">
        <ele>627</ele>
        <time>2022-12-03T08:49:01Z</time>
      </trkpt>
      <trkpt lat="44.75551" lon="5.19885">
        <ele>627</ele>
        <time>2022-12-03T08:49:01Z</time>
      </trkpt>
      <trkpt lat="44.7556" lon="5.19889">
        <ele>625</ele>
        <time>2022-12-03T08:49:01Z</time>
      </trkpt>
      <trkpt lat="44.75561" lon="5.19876">
        <ele>621</ele>
        <time>2022-12-03T08:49:01Z</time>
      </trkpt>
      <trkpt lat="44.75554" lon="5.1987">
        <ele>623</ele>
        <time>2022-12-03T08:49:01Z</time>
      </trkpt>
      <trkpt lat="44.7555" lon="5.1986">
        <ele>624</ele>
        <time>2022-12-03T08:49:01Z</time>
      </trkpt>
      <trkpt lat="44.75543" lon="5.19853">
        <ele>626</ele>
        <time>2022-12-03T08:49:01Z</time>
      </trkpt>
      <trkpt lat="44.75535" lon="5.19834">
        <ele>627</ele>
        <time>2022-12-03T08:49:01Z</time>
      </trkpt>
      <trkpt lat="44.75533" lon="5.19821">
        <ele>627</ele>
        <time>2022-12-03T08:49:01Z</time>
      </trkpt>
      <trkpt lat="44.75535" lon="5.19809">
        <ele>627</ele>
        <time>2022-12-03T08:49:01Z</time>
      </trkpt>
      <trkpt lat="44.75568" lon="5.19754">
        <ele>628</ele>
        <time>2022-12-03T08:49:01Z</time>
      </trkpt>
      <trkpt lat="44.75582" lon="5.19726">
        <ele>632</ele>
        <time>2022-12-03T08:49:01Z</time>
      </trkpt>
      <trkpt lat="44.75589" lon="5.1972">
        <ele>631</ele>
        <time>2022-12-03T08:49:01Z</time>
      </trkpt>
      <trkpt lat="44.75599" lon="5.19701">
        <ele>632</ele>
        <time>2022-12-03T08:49:01Z</time>
      </trkpt>
      <trkpt lat="44.75606" lon="5.19695">
        <ele>631</ele>
        <time>2022-12-03T08:49:01Z</time>
      </trkpt>
      <trkpt lat="44.75627" lon="5.19671">
        <ele>629</ele>
        <time>2022-12-03T08:49:01Z</time>
      </trkpt>
      <trkpt lat="44.75646" lon="5.19634">
        <ele>633</ele>
        <time>2022-12-03T08:49:01Z</time>
      </trkpt>
      <trkpt lat="44.75653" lon="5.19628">
        <ele>632</ele>
        <time>2022-12-03T08:49:01Z</time>
      </trkpt>
      <trkpt lat="44.75662" lon="5.1961">
        <ele>634</ele>
        <time>2022-12-03T08:49:01Z</time>
      </trkpt>
      <trkpt lat="44.75669" lon="5.19604">
        <ele>633</ele>
        <time>2022-12-03T08:49:01Z</time>
      </trkpt>
      <trkpt lat="44.75674" lon="5.19595">
        <ele>634</ele>
        <time>2022-12-03T08:49:01Z</time>
      </trkpt>
      <trkpt lat="44.75688" lon="5.19567">
        <ele>638</ele>
        <time>2022-12-03T08:49:01Z</time>
      </trkpt>
      <trkpt lat="44.75695" lon="5.19561">
        <ele>636</ele>
        <time>2022-12-03T08:49:01Z</time>
      </trkpt>
      <trkpt lat="44.75709" lon="5.19549">
        <ele>633</ele>
        <time>2022-12-03T08:49:01Z</time>
      </trkpt>
      <trkpt lat="44.75715" lon="5.19543">
        <ele>631</ele>
        <time>2022-12-03T08:49:01Z</time>
      </trkpt>
      <trkpt lat="44.75722" lon="5.19537">
        <ele>629</ele>
        <time>2022-12-03T08:49:01Z</time>
      </trkpt>
      <trkpt lat="44.75727" lon="5.19528">
        <ele>628</ele>
        <time>2022-12-03T08:49:01Z</time>
      </trkpt>
      <trkpt lat="44.7573" lon="5.19516">
        <ele>628</ele>
        <time>2022-12-03T08:49:01Z</time>
      </trkpt>
      <trkpt lat="44.7573" lon="5.19503">
        <ele>628</ele>
        <time>2022-12-03T08:49:01Z</time>
      </trkpt>
      <trkpt lat="44.75722" lon="5.19484">
        <ele>627</ele>
        <time>2022-12-03T08:49:01Z</time>
      </trkpt>
      <trkpt lat="44.75702" lon="5.19464">
        <ele>628</ele>
        <time>2022-12-03T08:49:01Z</time>
      </trkpt>
      <trkpt lat="44.75693" lon="5.1946">
        <ele>630</ele>
        <time>2022-12-03T08:49:01Z</time>
      </trkpt>
      <trkpt lat="44.7568" lon="5.19447">
        <ele>631</ele>
        <time>2022-12-03T08:49:01Z</time>
      </trkpt>
      <trkpt lat="44.75675" lon="5.19437">
        <ele>630</ele>
        <time>2022-12-03T08:49:01Z</time>
      </trkpt>
      <trkpt lat="44.75674" lon="5.19424">
        <ele>629</ele>
        <time>2022-12-03T08:49:01Z</time>
      </trkpt>
      <trkpt lat="44.75669" lon="5.19411">
        <ele>628</ele>
        <time>2022-12-03T08:49:01Z</time>
      </trkpt>
      <trkpt lat="44.7567" lon="5.19399">
        <ele>626</ele>
        <time>2022-12-03T08:49:01Z</time>
      </trkpt>
      <trkpt lat="44.75665" lon="5.19389">
        <ele>627</ele>
        <time>2022-12-03T08:49:01Z</time>
      </trkpt>
      <trkpt lat="44.75662" lon="5.19364">
        <ele>625</ele>
        <time>2022-12-03T08:49:01Z</time>
      </trkpt>
      <trkpt lat="44.7564" lon="5.19312">
        <ele>624</ele>
        <time>2022-12-03T08:49:01Z</time>
      </trkpt>
      <trkpt lat="44.75634" lon="5.19305">
        <ele>624</ele>
        <time>2022-12-03T08:49:01Z</time>
      </trkpt>
      <trkpt lat="44.75627" lon="5.19299">
        <ele>622</ele>
        <time>2022-12-03T08:49:01Z</time>
      </trkpt>
      <trkpt lat="44.75618" lon="5.19298">
        <ele>621</ele>
        <time>2022-12-03T08:49:01Z</time>
      </trkpt>
      <trkpt lat="44.75609" lon="5.19295">
        <ele>619</ele>
        <time>2022-12-03T08:49:01Z</time>
      </trkpt>
      <trkpt lat="44.756" lon="5.19294">
        <ele>619</ele>
        <time>2022-12-03T08:49:01Z</time>
      </trkpt>
      <trkpt lat="44.75591" lon="5.19297">
        <ele>619</ele>
        <time>2022-12-03T08:49:01Z</time>
      </trkpt>
      <trkpt lat="44.75571" lon="5.19315">
        <ele>619</ele>
        <time>2022-12-03T08:49:01Z</time>
      </trkpt>
      <trkpt lat="44.75566" lon="5.19324">
        <ele>621</ele>
        <time>2022-12-03T08:49:01Z</time>
      </trkpt>
      <trkpt lat="44.75559" lon="5.1933">
        <ele>622</ele>
        <time>2022-12-03T08:49:01Z</time>
      </trkpt>
      <trkpt lat="44.75554" lon="5.19339">
        <ele>624</ele>
        <time>2022-12-03T08:49:01Z</time>
      </trkpt>
      <trkpt lat="44.75547" lon="5.19345">
        <ele>624</ele>
        <time>2022-12-03T08:49:01Z</time>
      </trkpt>
      <trkpt lat="44.75543" lon="5.19354">
        <ele>627</ele>
        <time>2022-12-03T08:49:01Z</time>
      </trkpt>
      <trkpt lat="44.75538" lon="5.19364">
        <ele>629</ele>
        <time>2022-12-03T08:49:01Z</time>
      </trkpt>
      <trkpt lat="44.75503" lon="5.19397">
        <ele>628</ele>
        <time>2022-12-03T08:49:01Z</time>
      </trkpt>
      <trkpt lat="44.75467" lon="5.19407">
        <ele>628</ele>
        <time>2022-12-03T08:49:01Z</time>
      </trkpt>
      <trkpt lat="44.75413" lon="5.19405">
        <ele>630</ele>
        <time>2022-12-03T08:49:01Z</time>
      </trkpt>
      <trkpt lat="44.75404" lon="5.19401">
        <ele>630</ele>
        <time>2022-12-03T08:49:01Z</time>
      </trkpt>
      <trkpt lat="44.75384" lon="5.19381">
        <ele>633</ele>
        <time>2022-12-03T08:49:01Z</time>
      </trkpt>
      <trkpt lat="44.75383" lon="5.19368">
        <ele>632</ele>
        <time>2022-12-03T08:49:01Z</time>
      </trkpt>
      <trkpt lat="44.75385" lon="5.19267">
        <ele>636</ele>
        <time>2022-12-03T08:49:01Z</time>
      </trkpt>
      <trkpt lat="44.7539" lon="5.19242">
        <ele>635</ele>
        <time>2022-12-03T08:49:01Z</time>
      </trkpt>
      <trkpt lat="44.75395" lon="5.19233">
        <ele>633</ele>
        <time>2022-12-03T08:49:01Z</time>
      </trkpt>
      <trkpt lat="44.75403" lon="5.19196">
        <ele>630</ele>
        <time>2022-12-03T08:49:01Z</time>
      </trkpt>
      <trkpt lat="44.75403" lon="5.1917">
        <ele>630</ele>
        <time>2022-12-03T08:49:01Z</time>
      </trkpt>
      <trkpt lat="44.75404" lon="5.19158">
        <ele>628</ele>
        <time>2022-12-03T08:49:01Z</time>
      </trkpt>
      <trkpt lat="44.75402" lon="5.19145">
        <ele>627</ele>
        <time>2022-12-03T08:49:01Z</time>
      </trkpt>
      <trkpt lat="44.75402" lon="5.19132">
        <ele>626</ele>
        <time>2022-12-03T08:49:01Z</time>
      </trkpt>
      <trkpt lat="44.75389" lon="5.191">
        <ele>625</ele>
        <time>2022-12-03T08:49:01Z</time>
      </trkpt>
      <trkpt lat="44.75383" lon="5.19094">
        <ele>626</ele>
        <time>2022-12-03T08:49:01Z</time>
      </trkpt>
      <trkpt lat="44.7537" lon="5.1908">
        <ele>629</ele>
        <time>2022-12-03T08:49:01Z</time>
      </trkpt>
      <trkpt lat="44.75365" lon="5.19071">
        <ele>628</ele>
        <time>2022-12-03T08:49:01Z</time>
      </trkpt>
      <trkpt lat="44.75359" lon="5.19064">
        <ele>630</ele>
        <time>2022-12-03T08:49:01Z</time>
      </trkpt>
      <trkpt lat="44.7535" lon="5.19045">
        <ele>630</ele>
        <time>2022-12-03T08:49:01Z</time>
      </trkpt>
      <trkpt lat="44.75351" lon="5.19019">
        <ele>632</ele>
        <time>2022-12-03T08:49:01Z</time>
      </trkpt>
      <trkpt lat="44.7537" lon="5.18979">
        <ele>630</ele>
        <time>2022-12-03T08:49:01Z</time>
      </trkpt>
      <trkpt lat="44.75384" lon="5.18961">
        <ele>630</ele>
        <time>2022-12-03T08:49:01Z</time>
      </trkpt>
      <trkpt lat="44.75389" lon="5.18952">
        <ele>632</ele>
        <time>2022-12-03T08:49:01Z</time>
      </trkpt>
      <trkpt lat="44.75403" lon="5.1894">
        <ele>631</ele>
        <time>2022-12-03T08:49:01Z</time>
      </trkpt>
      <trkpt lat="44.75407" lon="5.18931">
        <ele>632</ele>
        <time>2022-12-03T08:49:01Z</time>
      </trkpt>
      <trkpt lat="44.75522" lon="5.18835">
        <ele>627</ele>
        <time>2022-12-03T08:49:01Z</time>
      </trkpt>
      <trkpt lat="44.75527" lon="5.18826">
        <ele>627</ele>
        <time>2022-12-03T08:49:01Z</time>
      </trkpt>
      <trkpt lat="44.75562" lon="5.18793">
        <ele>624</ele>
        <time>2022-12-03T08:49:01Z</time>
      </trkpt>
      <trkpt lat="44.75575" lon="5.18781">
        <ele>621</ele>
        <time>2022-12-03T08:49:01Z</time>
      </trkpt>
      <trkpt lat="44.75582" lon="5.18775">
        <ele>619</ele>
        <time>2022-12-03T08:49:01Z</time>
      </trkpt>
      <trkpt lat="44.75598" lon="5.18764">
        <ele>616</ele>
        <time>2022-12-03T08:49:01Z</time>
      </trkpt>
      <trkpt lat="44.75608" lon="5.18745">
        <ele>616</ele>
        <time>2022-12-03T08:49:01Z</time>
      </trkpt>
      <trkpt lat="44.7561" lon="5.18733">
        <ele>615</ele>
        <time>2022-12-03T08:49:01Z</time>
      </trkpt>
      <trkpt lat="44.75611" lon="5.1872">
        <ele>614</ele>
        <time>2022-12-03T08:49:01Z</time>
      </trkpt>
      <trkpt lat="44.75591" lon="5.18697">
        <ele>617</ele>
        <time>2022-12-03T08:49:01Z</time>
      </trkpt>
      <trkpt lat="44.75578" lon="5.18684">
        <ele>620</ele>
        <time>2022-12-03T08:49:01Z</time>
      </trkpt>
      <trkpt lat="44.75565" lon="5.18655">
        <ele>618</ele>
        <time>2022-12-03T08:49:01Z</time>
      </trkpt>
      <trkpt lat="44.75539" lon="5.18628">
        <ele>618</ele>
        <time>2022-12-03T08:49:01Z</time>
      </trkpt>
      <trkpt lat="44.7553" lon="5.18624">
        <ele>619</ele>
        <time>2022-12-03T08:49:01Z</time>
      </trkpt>
      <trkpt lat="44.75517" lon="5.18611">
        <ele>619</ele>
        <time>2022-12-03T08:49:01Z</time>
      </trkpt>
      <trkpt lat="44.75502" lon="5.18582">
        <ele>616</ele>
        <time>2022-12-03T08:49:01Z</time>
      </trkpt>
      <trkpt lat="44.75482" lon="5.18562">
        <ele>614</ele>
        <time>2022-12-03T08:49:01Z</time>
      </trkpt>
      <trkpt lat="44.75478" lon="5.18552">
        <ele>613</ele>
        <time>2022-12-03T08:49:01Z</time>
      </trkpt>
      <trkpt lat="44.75471" lon="5.18546">
        <ele>611</ele>
        <time>2022-12-03T08:49:01Z</time>
      </trkpt>
      <trkpt lat="44.75472" lon="5.18533">
        <ele>609</ele>
        <time>2022-12-03T08:49:01Z</time>
      </trkpt>
      <trkpt lat="44.75474" lon="5.1852">
        <ele>608</ele>
        <time>2022-12-03T08:49:01Z</time>
      </trkpt>
      <trkpt lat="44.75484" lon="5.18502">
        <ele>607</ele>
        <time>2022-12-03T08:49:01Z</time>
      </trkpt>
      <trkpt lat="44.75491" lon="5.18496">
        <ele>607</ele>
        <time>2022-12-03T08:49:01Z</time>
      </trkpt>
      <trkpt lat="44.75495" lon="5.18487">
        <ele>607</ele>
        <time>2022-12-03T08:49:01Z</time>
      </trkpt>
      <trkpt lat="44.75509" lon="5.18475">
        <ele>607</ele>
        <time>2022-12-03T08:49:01Z</time>
      </trkpt>
      <trkpt lat="44.75512" lon="5.18462">
        <ele>606</ele>
        <time>2022-12-03T08:49:01Z</time>
      </trkpt>
      <trkpt lat="44.75539" lon="5.18435">
        <ele>607</ele>
        <time>2022-12-03T08:49:01Z</time>
      </trkpt>
      <trkpt lat="44.75544" lon="5.18426">
        <ele>607</ele>
        <time>2022-12-03T08:49:01Z</time>
      </trkpt>
      <trkpt lat="44.75565" lon="5.18408">
        <ele>607</ele>
        <time>2022-12-03T08:49:01Z</time>
      </trkpt>
      <trkpt lat="44.7557" lon="5.18399">
        <ele>607</ele>
        <time>2022-12-03T08:49:01Z</time>
      </trkpt>
      <trkpt lat="44.75604" lon="5.18366">
        <ele>604</ele>
        <time>2022-12-03T08:49:01Z</time>
      </trkpt>
      <trkpt lat="44.7563" lon="5.1832">
        <ele>600</ele>
        <time>2022-12-03T08:49:01Z</time>
      </trkpt>
      <trkpt lat="44.75638" lon="5.18282">
        <ele>597</ele>
        <time>2022-12-03T08:49:01Z</time>
      </trkpt>
      <trkpt lat="44.75643" lon="5.18273">
        <ele>597</ele>
        <time>2022-12-03T08:49:01Z</time>
      </trkpt>
      <trkpt lat="44.75645" lon="5.18261">
        <ele>596</ele>
        <time>2022-12-03T08:49:01Z</time>
      </trkpt>
      <trkpt lat="44.75646" lon="5.18223">
        <ele>593</ele>
        <time>2022-12-03T08:49:01Z</time>
      </trkpt>
      <trkpt lat="44.75654" lon="5.18185">
        <ele>594</ele>
        <time>2022-12-03T08:49:01Z</time>
      </trkpt>
      <trkpt lat="44.75654" lon="5.18173">
        <ele>594</ele>
        <time>2022-12-03T08:49:01Z</time>
      </trkpt>
      <trkpt lat="44.75657" lon="5.1816">
        <ele>596</ele>
        <time>2022-12-03T08:49:01Z</time>
      </trkpt>
      <trkpt lat="44.75653" lon="5.18135">
        <ele>597</ele>
        <time>2022-12-03T08:49:01Z</time>
      </trkpt>
      <trkpt lat="44.75649" lon="5.18125">
        <ele>596</ele>
        <time>2022-12-03T08:49:01Z</time>
      </trkpt>
      <trkpt lat="44.75642" lon="5.18118">
        <ele>595</ele>
        <time>2022-12-03T08:49:01Z</time>
      </trkpt>
      <trkpt lat="44.75638" lon="5.18109">
        <ele>595</ele>
        <time>2022-12-03T08:49:01Z</time>
      </trkpt>
      <trkpt lat="44.75631" lon="5.18102">
        <ele>594</ele>
        <time>2022-12-03T08:49:01Z</time>
      </trkpt>
      <trkpt lat="44.75627" lon="5.18092">
        <ele>595</ele>
        <time>2022-12-03T08:49:01Z</time>
      </trkpt>
      <trkpt lat="44.75625" lon="5.1808">
        <ele>597</ele>
        <time>2022-12-03T08:49:01Z</time>
      </trkpt>
      <trkpt lat="44.75621" lon="5.1807">
        <ele>598</ele>
        <time>2022-12-03T08:49:01Z</time>
      </trkpt>
      <trkpt lat="44.75592" lon="5.18043">
        <ele>596</ele>
        <time>2022-12-03T08:49:01Z</time>
      </trkpt>
      <trkpt lat="44.75574" lon="5.18036">
        <ele>594</ele>
        <time>2022-12-03T08:49:01Z</time>
      </trkpt>
      <trkpt lat="44.75568" lon="5.18029">
        <ele>593</ele>
        <time>2022-12-03T08:49:01Z</time>
      </trkpt>
      <trkpt lat="44.75555" lon="5.18">
        <ele>597</ele>
        <time>2022-12-03T08:49:01Z</time>
      </trkpt>
      <trkpt lat="44.75542" lon="5.17984">
        <ele>597</ele>
        <time>2022-12-03T08:49:01Z</time>
      </trkpt>
      <trkpt lat="44.75531" lon="5.17964">
        <ele>599</ele>
        <time>2022-12-03T08:49:01Z</time>
      </trkpt>
      <trkpt lat="44.75525" lon="5.17958">
        <ele>599</ele>
        <time>2022-12-03T08:49:01Z</time>
      </trkpt>
      <trkpt lat="44.75516" lon="5.17938">
        <ele>600</ele>
        <time>2022-12-03T08:49:01Z</time>
      </trkpt>
      <trkpt lat="44.7551" lon="5.17932">
        <ele>599</ele>
        <time>2022-12-03T08:49:01Z</time>
      </trkpt>
      <trkpt lat="44.75497" lon="5.17903">
        <ele>600</ele>
        <time>2022-12-03T08:49:01Z</time>
      </trkpt>
      <trkpt lat="44.75495" lon="5.1789">
        <ele>601</ele>
        <time>2022-12-03T08:49:01Z</time>
      </trkpt>
      <trkpt lat="44.75491" lon="5.17864">
        <ele>604</ele>
        <time>2022-12-03T08:49:01Z</time>
      </trkpt>
      <trkpt lat="44.75487" lon="5.17839">
        <ele>606</ele>
        <time>2022-12-03T08:49:01Z</time>
      </trkpt>
      <trkpt lat="44.75449" lon="5.17752">
        <ele>603</ele>
        <time>2022-12-03T08:49:01Z</time>
      </trkpt>
      <trkpt lat="44.75447" lon="5.17739">
        <ele>603</ele>
        <time>2022-12-03T08:49:01Z</time>
      </trkpt>
      <trkpt lat="44.75441" lon="5.17732">
        <ele>601</ele>
        <time>2022-12-03T08:49:01Z</time>
      </trkpt>
      <trkpt lat="44.75439" lon="5.1772">
        <ele>601</ele>
        <time>2022-12-03T08:49:01Z</time>
      </trkpt>
      <trkpt lat="44.75432" lon="5.17713">
        <ele>600</ele>
        <time>2022-12-03T08:49:01Z</time>
      </trkpt>
      <trkpt lat="44.75402" lon="5.17639">
        <ele>602</ele>
        <time>2022-12-03T08:49:01Z</time>
      </trkpt>
      <trkpt lat="44.75401" lon="5.17626">
        <ele>602</ele>
        <time>2022-12-03T08:49:01Z</time>
      </trkpt>
      <trkpt lat="44.75392" lon="5.17607">
        <ele>603</ele>
        <time>2022-12-03T08:49:01Z</time>
      </trkpt>
      <trkpt lat="44.75379" lon="5.17594">
        <ele>603</ele>
        <time>2022-12-03T08:49:01Z</time>
      </trkpt>
      <trkpt lat="44.7537" lon="5.1759">
        <ele>602</ele>
        <time>2022-12-03T08:49:01Z</time>
      </trkpt>
      <trkpt lat="44.75363" lon="5.17583">
        <ele>602</ele>
        <time>2022-12-03T08:49:01Z</time>
      </trkpt>
      <trkpt lat="44.75359" lon="5.17574">
        <ele>602</ele>
        <time>2022-12-03T08:49:01Z</time>
      </trkpt>
      <trkpt lat="44.75353" lon="5.17567">
        <ele>601</ele>
        <time>2022-12-03T08:49:01Z</time>
      </trkpt>
      <trkpt lat="44.75348" lon="5.17557">
        <ele>601</ele>
        <time>2022-12-03T08:49:01Z</time>
      </trkpt>
      <trkpt lat="44.75346" lon="5.17545">
        <ele>602</ele>
        <time>2022-12-03T08:49:01Z</time>
      </trkpt>
      <trkpt lat="44.75347" lon="5.17532">
        <ele>603</ele>
        <time>2022-12-03T08:49:01Z</time>
      </trkpt>
      <trkpt lat="44.75343" lon="5.17519">
        <ele>602</ele>
        <time>2022-12-03T08:49:01Z</time>
      </trkpt>
      <trkpt lat="44.75341" lon="5.17506">
        <ele>602</ele>
        <time>2022-12-03T08:49:01Z</time>
      </trkpt>
      <trkpt lat="44.75328" lon="5.17477">
        <ele>601</ele>
        <time>2022-12-03T08:49:01Z</time>
      </trkpt>
      <trkpt lat="44.75321" lon="5.17471">
        <ele>600</ele>
        <time>2022-12-03T08:49:01Z</time>
      </trkpt>
      <trkpt lat="44.75304" lon="5.17429">
        <ele>599</ele>
        <time>2022-12-03T08:49:01Z</time>
      </trkpt>
      <trkpt lat="44.75291" lon="5.17412">
        <ele>599</ele>
        <time>2022-12-03T08:49:01Z</time>
      </trkpt>
      <trkpt lat="44.75287" lon="5.17403">
        <ele>601</ele>
        <time>2022-12-03T08:49:01Z</time>
      </trkpt>
      <trkpt lat="44.75274" lon="5.17389">
        <ele>600</ele>
        <time>2022-12-03T08:49:01Z</time>
      </trkpt>
      <trkpt lat="44.7527" lon="5.1738">
        <ele>600</ele>
        <time>2022-12-03T08:49:01Z</time>
      </trkpt>
      <trkpt lat="44.75263" lon="5.17373">
        <ele>600</ele>
        <time>2022-12-03T08:49:01Z</time>
      </trkpt>
      <trkpt lat="44.7525" lon="5.17344">
        <ele>602</ele>
        <time>2022-12-03T08:49:01Z</time>
      </trkpt>
      <trkpt lat="44.75248" lon="5.17331">
        <ele>603</ele>
        <time>2022-12-03T08:49:01Z</time>
      </trkpt>
      <trkpt lat="44.75236" lon="5.17302">
        <ele>601</ele>
        <time>2022-12-03T08:49:01Z</time>
      </trkpt>
      <trkpt lat="44.75241" lon="5.17277">
        <ele>602</ele>
        <time>2022-12-03T08:49:01Z</time>
      </trkpt>
      <trkpt lat="44.75245" lon="5.17268">
        <ele>601</ele>
        <time>2022-12-03T08:49:01Z</time>
      </trkpt>
      <trkpt lat="44.75246" lon="5.17255">
        <ele>599</ele>
        <time>2022-12-03T08:49:01Z</time>
      </trkpt>
      <trkpt lat="44.75248" lon="5.17243">
        <ele>596</ele>
        <time>2022-12-03T08:49:01Z</time>
      </trkpt>
      <trkpt lat="44.75253" lon="5.17234">
        <ele>594</ele>
        <time>2022-12-03T08:49:01Z</time>
      </trkpt>
      <trkpt lat="44.75256" lon="5.17221">
        <ele>592</ele>
        <time>2022-12-03T08:49:01Z</time>
      </trkpt>
      <trkpt lat="44.75258" lon="5.17209">
        <ele>589</ele>
        <time>2022-12-03T08:49:01Z</time>
      </trkpt>
      <trkpt lat="44.75261" lon="5.17196">
        <ele>586</ele>
        <time>2022-12-03T08:49:01Z</time>
      </trkpt>
      <trkpt lat="44.75266" lon="5.17187">
        <ele>584</ele>
        <time>2022-12-03T08:49:01Z</time>
      </trkpt>
      <trkpt lat="44.75272" lon="5.17181">
        <ele>582</ele>
        <time>2022-12-03T08:49:01Z</time>
      </trkpt>
      <trkpt lat="44.75277" lon="5.17172">
        <ele>580</ele>
        <time>2022-12-03T08:49:01Z</time>
      </trkpt>
      <trkpt lat="44.7528" lon="5.17159">
        <ele>577</ele>
        <time>2022-12-03T08:49:01Z</time>
      </trkpt>
      <trkpt lat="44.75276" lon="5.17149">
        <ele>575</ele>
        <time>2022-12-03T08:49:01Z</time>
      </trkpt>
      <trkpt lat="44.75271" lon="5.1714">
        <ele>573</ele>
        <time>2022-12-03T08:49:01Z</time>
      </trkpt>
      <trkpt lat="44.75267" lon="5.1713">
        <ele>570</ele>
        <time>2022-12-03T08:49:01Z</time>
      </trkpt>
      <trkpt lat="44.75263" lon="5.1712">
        <ele>568</ele>
        <time>2022-12-03T08:49:01Z</time>
      </trkpt>
      <trkpt lat="44.75256" lon="5.17114">
        <ele>566</ele>
        <time>2022-12-03T08:49:01Z</time>
      </trkpt>
      <trkpt lat="44.75242" lon="5.17126">
        <ele>567</ele>
        <time>2022-12-03T08:49:01Z</time>
      </trkpt>
      <trkpt lat="44.75236" lon="5.17119">
        <ele>566</ele>
        <time>2022-12-03T08:49:01Z</time>
      </trkpt>
      <trkpt lat="44.75232" lon="5.17109">
        <ele>564</ele>
        <time>2022-12-03T08:49:01Z</time>
      </trkpt>
      <trkpt lat="44.75223" lon="5.1709">
        <ele>561</ele>
        <time>2022-12-03T08:49:01Z</time>
      </trkpt>
      <trkpt lat="44.75215" lon="5.17071">
        <ele>558</ele>
        <time>2022-12-03T08:49:01Z</time>
      </trkpt>
      <trkpt lat="44.75215" lon="5.17058">
        <ele>556</ele>
        <time>2022-12-03T08:49:01Z</time>
      </trkpt>
      <trkpt lat="44.75213" lon="5.17045">
        <ele>554</ele>
        <time>2022-12-03T08:49:01Z</time>
      </trkpt>
      <trkpt lat="44.75211" lon="5.17032">
        <ele>552</ele>
        <time>2022-12-03T08:49:01Z</time>
      </trkpt>
      <trkpt lat="44.75207" lon="5.17023">
        <ele>550</ele>
        <time>2022-12-03T08:49:01Z</time>
      </trkpt>
      <trkpt lat="44.75203" lon="5.17013">
        <ele>548</ele>
        <time>2022-12-03T08:49:01Z</time>
      </trkpt>
      <trkpt lat="44.75198" lon="5.17003">
        <ele>545</ele>
        <time>2022-12-03T08:49:01Z</time>
      </trkpt>
      <trkpt lat="44.75194" lon="5.16994">
        <ele>542</ele>
        <time>2022-12-03T08:49:01Z</time>
      </trkpt>
      <trkpt lat="44.7519" lon="5.16984">
        <ele>539</ele>
        <time>2022-12-03T08:49:01Z</time>
      </trkpt>
      <trkpt lat="44.75186" lon="5.16974">
        <ele>536</ele>
        <time>2022-12-03T08:49:01Z</time>
      </trkpt>
      <trkpt lat="44.75181" lon="5.16965">
        <ele>533</ele>
        <time>2022-12-03T08:49:01Z</time>
      </trkpt>
      <trkpt lat="44.75177" lon="5.16952">
        <ele>529</ele>
        <time>2022-12-03T08:49:01Z</time>
      </trkpt>
      <trkpt lat="44.75173" lon="5.16942">
        <ele>526</ele>
        <time>2022-12-03T08:49:01Z</time>
      </trkpt>
      <trkpt lat="44.75178" lon="5.16933">
        <ele>523</ele>
        <time>2022-12-03T08:49:01Z</time>
      </trkpt>
      <trkpt lat="44.75178" lon="5.1692">
        <ele>520</ele>
        <time>2022-12-03T08:49:01Z</time>
      </trkpt>
      <trkpt lat="44.75174" lon="5.16911">
        <ele>517</ele>
        <time>2022-12-03T08:49:01Z</time>
      </trkpt>
      <trkpt lat="44.75169" lon="5.16901">
        <ele>514</ele>
        <time>2022-12-03T08:49:01Z</time>
      </trkpt>
      <trkpt lat="44.75165" lon="5.16891">
        <ele>511</ele>
        <time>2022-12-03T08:49:01Z</time>
      </trkpt>
      <trkpt lat="44.75163" lon="5.16878">
        <ele>507</ele>
        <time>2022-12-03T08:49:01Z</time>
      </trkpt>
      <trkpt lat="44.75161" lon="5.16866">
        <ele>504</ele>
        <time>2022-12-03T08:49:01Z</time>
      </trkpt>
      <trkpt lat="44.75159" lon="5.16853">
        <ele>500</ele>
        <time>2022-12-03T08:49:01Z</time>
      </trkpt>
      <trkpt lat="44.75157" lon="5.1684">
        <ele>497</ele>
        <time>2022-12-03T08:49:01Z</time>
      </trkpt>
      <trkpt lat="44.75158" lon="5.16828">
        <ele>493</ele>
        <time>2022-12-03T08:49:01Z</time>
      </trkpt>
      <trkpt lat="44.75156" lon="5.16815">
        <ele>493</ele>
        <time>2022-12-03T08:49:01Z</time>
      </trkpt>
      <trkpt lat="44.75157" lon="5.16777">
        <ele>493</ele>
        <time>2022-12-03T08:49:01Z</time>
      </trkpt>
      <trkpt lat="44.7515" lon="5.1677">
        <ele>492</ele>
        <time>2022-12-03T08:49:01Z</time>
      </trkpt>
      <trkpt lat="44.75141" lon="5.16773">
        <ele>491</ele>
        <time>2022-12-03T08:49:01Z</time>
      </trkpt>
      <trkpt lat="44.75136" lon="5.16782">
        <ele>491</ele>
        <time>2022-12-03T08:49:01Z</time>
      </trkpt>
      <trkpt lat="44.75136" lon="5.16795">
        <ele>491</ele>
        <time>2022-12-03T08:49:01Z</time>
      </trkpt>
      <trkpt lat="44.75134" lon="5.16807">
        <ele>490</ele>
        <time>2022-12-03T08:49:01Z</time>
      </trkpt>
      <trkpt lat="44.75129" lon="5.1682">
        <ele>490</ele>
        <time>2022-12-03T08:49:01Z</time>
      </trkpt>
      <trkpt lat="44.75126" lon="5.16832">
        <ele>491</ele>
        <time>2022-12-03T08:49:01Z</time>
      </trkpt>
      <trkpt lat="44.75121" lon="5.16842">
        <ele>492</ele>
        <time>2022-12-03T08:49:01Z</time>
      </trkpt>
      <trkpt lat="44.75117" lon="5.16851">
        <ele>494</ele>
        <time>2022-12-03T08:49:01Z</time>
      </trkpt>
      <trkpt lat="44.75103" lon="5.16863">
        <ele>493</ele>
        <time>2022-12-03T08:49:01Z</time>
      </trkpt>
      <trkpt lat="44.75094" lon="5.16862">
        <ele>491</ele>
        <time>2022-12-03T08:49:01Z</time>
      </trkpt>
      <trkpt lat="44.75087" lon="5.16868">
        <ele>491</ele>
        <time>2022-12-03T08:49:01Z</time>
      </trkpt>
      <trkpt lat="44.75078" lon="5.16865">
        <ele>488</ele>
        <time>2022-12-03T08:49:01Z</time>
      </trkpt>
      <trkpt lat="44.75069" lon="5.16864">
        <ele>486</ele>
        <time>2022-12-03T08:49:01Z</time>
      </trkpt>
      <trkpt lat="44.7506" lon="5.16861">
        <ele>484</ele>
        <time>2022-12-03T08:49:01Z</time>
      </trkpt>
      <trkpt lat="44.75042" lon="5.1686">
        <ele>481</ele>
        <time>2022-12-03T08:49:01Z</time>
      </trkpt>
      <trkpt lat="44.75022" lon="5.16878">
        <ele>481</ele>
        <time>2022-12-03T08:49:01Z</time>
      </trkpt>
      <trkpt lat="44.75002" lon="5.16918">
        <ele>484</ele>
        <time>2022-12-03T08:49:01Z</time>
      </trkpt>
      <trkpt lat="44.74993" lon="5.1692">
        <ele>484</ele>
        <time>2022-12-03T08:49:01Z</time>
      </trkpt>
      <trkpt lat="44.74985" lon="5.16914">
        <ele>481</ele>
        <time>2022-12-03T08:49:01Z</time>
      </trkpt>
      <trkpt lat="44.74978" lon="5.16907">
        <ele>479</ele>
        <time>2022-12-03T08:49:01Z</time>
      </trkpt>
      <trkpt lat="44.74969" lon="5.16907">
        <ele>479</ele>
        <time>2022-12-03T08:49:01Z</time>
      </trkpt>
      <trkpt lat="44.7496" lon="5.16909">
        <ele>479</ele>
        <time>2022-12-03T08:49:01Z</time>
      </trkpt>
      <trkpt lat="44.74955" lon="5.16918">
        <ele>481</ele>
        <time>2022-12-03T08:49:01Z</time>
      </trkpt>
      <trkpt lat="44.74948" lon="5.16928">
        <ele>484</ele>
        <time>2022-12-03T08:49:01Z</time>
      </trkpt>
      <trkpt lat="44.74943" lon="5.16937">
        <ele>486</ele>
        <time>2022-12-03T08:49:01Z</time>
      </trkpt>
      <trkpt lat="44.74937" lon="5.16943">
        <ele>488</ele>
        <time>2022-12-03T08:49:01Z</time>
      </trkpt>
      <trkpt lat="44.74932" lon="5.16952">
        <ele>489</ele>
        <time>2022-12-03T08:49:01Z</time>
      </trkpt>
      <trkpt lat="44.74925" lon="5.16958">
        <ele>488</ele>
        <time>2022-12-03T08:49:01Z</time>
      </trkpt>
      <trkpt lat="44.7492" lon="5.16967">
        <ele>488</ele>
        <time>2022-12-03T08:49:01Z</time>
      </trkpt>
      <trkpt lat="44.74899" lon="5.16985">
        <ele>486</ele>
        <time>2022-12-03T08:49:01Z</time>
      </trkpt>
      <trkpt lat="44.74895" lon="5.16994">
        <ele>485</ele>
        <time>2022-12-03T08:49:01Z</time>
      </trkpt>
      <trkpt lat="44.74894" lon="5.17032">
        <ele>486</ele>
        <time>2022-12-03T08:49:01Z</time>
      </trkpt>
      <trkpt lat="44.74889" lon="5.17057">
        <ele>485</ele>
        <time>2022-12-03T08:49:01Z</time>
      </trkpt>
      <trkpt lat="44.74884" lon="5.17066">
        <ele>484</ele>
        <time>2022-12-03T08:49:01Z</time>
      </trkpt>
      <trkpt lat="44.74881" lon="5.17079">
        <ele>483</ele>
        <time>2022-12-03T08:49:01Z</time>
      </trkpt>
      <trkpt lat="44.74881" lon="5.17092">
        <ele>482</ele>
        <time>2022-12-03T08:49:01Z</time>
      </trkpt>
      <trkpt lat="44.74878" lon="5.17104">
        <ele>481</ele>
        <time>2022-12-03T08:49:01Z</time>
      </trkpt>
      <trkpt lat="44.74878" lon="5.17117">
        <ele>481</ele>
        <time>2022-12-03T08:49:01Z</time>
      </trkpt>
      <trkpt lat="44.74882" lon="5.17126">
        <ele>483</ele>
        <time>2022-12-03T08:49:01Z</time>
      </trkpt>
      <trkpt lat="44.74896" lon="5.1714">
        <ele>485</ele>
        <time>2022-12-03T08:49:01Z</time>
      </trkpt>
      <trkpt lat="44.74904" lon="5.17143">
        <ele>487</ele>
        <time>2022-12-03T08:49:01Z</time>
      </trkpt>
      <trkpt lat="44.74911" lon="5.1715">
        <ele>488</ele>
        <time>2022-12-03T08:49:01Z</time>
      </trkpt>
      <trkpt lat="44.74926" lon="5.17163">
        <ele>491</ele>
        <time>2022-12-03T08:49:01Z</time>
      </trkpt>
      <trkpt lat="44.74928" lon="5.17176">
        <ele>491</ele>
        <time>2022-12-03T08:49:01Z</time>
      </trkpt>
      <trkpt lat="44.74921" lon="5.17182">
        <ele>489</ele>
        <time>2022-12-03T08:49:01Z</time>
      </trkpt>
      <trkpt lat="44.74914" lon="5.17191">
        <ele>486</ele>
        <time>2022-12-03T08:49:01Z</time>
      </trkpt>
      <trkpt lat="44.74907" lon="5.172">
        <ele>484</ele>
        <time>2022-12-03T08:49:01Z</time>
      </trkpt>
      <trkpt lat="44.74901" lon="5.17206">
        <ele>483</ele>
        <time>2022-12-03T08:49:01Z</time>
      </trkpt>
      <trkpt lat="44.74894" lon="5.17212">
        <ele>481</ele>
        <time>2022-12-03T08:49:01Z</time>
      </trkpt>
      <trkpt lat="44.74889" lon="5.17221">
        <ele>480</ele>
        <time>2022-12-03T08:49:01Z</time>
      </trkpt>
      <trkpt lat="44.74889" lon="5.17234">
        <ele>481</ele>
        <time>2022-12-03T08:49:01Z</time>
      </trkpt>
      <trkpt lat="44.74884" lon="5.17243">
        <ele>480</ele>
        <time>2022-12-03T08:49:01Z</time>
      </trkpt>
      <trkpt lat="44.74881" lon="5.17256">
        <ele>479</ele>
        <time>2022-12-03T08:49:01Z</time>
      </trkpt>
      <trkpt lat="44.74881" lon="5.17268">
        <ele>478</ele>
        <time>2022-12-03T08:49:01Z</time>
      </trkpt>
      <trkpt lat="44.74881" lon="5.17281">
        <ele>476</ele>
        <time>2022-12-03T08:49:01Z</time>
      </trkpt>
      <trkpt lat="44.74887" lon="5.17288">
        <ele>477</ele>
        <time>2022-12-03T08:49:01Z</time>
      </trkpt>
      <trkpt lat="44.74891" lon="5.17297">
        <ele>478</ele>
        <time>2022-12-03T08:49:01Z</time>
      </trkpt>
      <trkpt lat="44.74893" lon="5.1731">
        <ele>477</ele>
        <time>2022-12-03T08:49:01Z</time>
      </trkpt>
      <trkpt lat="44.749" lon="5.17317">
        <ele>478</ele>
        <time>2022-12-03T08:49:01Z</time>
      </trkpt>
      <trkpt lat="44.74904" lon="5.17326">
        <ele>478</ele>
        <time>2022-12-03T08:49:01Z</time>
      </trkpt>
      <trkpt lat="44.74917" lon="5.1734">
        <ele>480</ele>
        <time>2022-12-03T08:49:01Z</time>
      </trkpt>
      <trkpt lat="44.74922" lon="5.17349">
        <ele>480</ele>
        <time>2022-12-03T08:49:01Z</time>
      </trkpt>
      <trkpt lat="44.74928" lon="5.17356">
        <ele>480</ele>
        <time>2022-12-03T08:49:01Z</time>
      </trkpt>
      <trkpt lat="44.74941" lon="5.17385">
        <ele>477</ele>
        <time>2022-12-03T08:49:01Z</time>
      </trkpt>
      <trkpt lat="44.7495" lon="5.17389">
        <ele>478</ele>
        <time>2022-12-03T08:49:01Z</time>
      </trkpt>
      <trkpt lat="44.74959" lon="5.17389">
        <ele>480</ele>
        <time>2022-12-03T08:49:01Z</time>
      </trkpt>
      <trkpt lat="44.74984" lon="5.17381">
        <ele>481</ele>
        <time>2022-12-03T08:49:01Z</time>
      </trkpt>
      <trkpt lat="44.74991" lon="5.17375">
        <ele>482</ele>
        <time>2022-12-03T08:49:01Z</time>
      </trkpt>
      <trkpt lat="44.75009" lon="5.17376">
        <ele>482</ele>
        <time>2022-12-03T08:49:01Z</time>
      </trkpt>
      <trkpt lat="44.75008" lon="5.17401">
        <ele>481</ele>
        <time>2022-12-03T08:49:01Z</time>
      </trkpt>
      <trkpt lat="44.75005" lon="5.17414">
        <ele>482</ele>
        <time>2022-12-03T08:49:01Z</time>
      </trkpt>
      <trkpt lat="44.75001" lon="5.17423">
        <ele>482</ele>
        <time>2022-12-03T08:49:01Z</time>
      </trkpt>
      <trkpt lat="44.74998" lon="5.17435">
        <ele>483</ele>
        <time>2022-12-03T08:49:01Z</time>
      </trkpt>
      <trkpt lat="44.74989" lon="5.17454">
        <ele>481</ele>
        <time>2022-12-03T08:49:01Z</time>
      </trkpt>
      <trkpt lat="44.74986" lon="5.17466">
        <ele>479</ele>
        <time>2022-12-03T08:49:01Z</time>
      </trkpt>
      <trkpt lat="44.74981" lon="5.17475">
        <ele>478</ele>
        <time>2022-12-03T08:49:01Z</time>
      </trkpt>
      <trkpt lat="44.74977" lon="5.17485">
        <ele>476</ele>
        <time>2022-12-03T08:49:01Z</time>
      </trkpt>
      <trkpt lat="44.7497" lon="5.17494">
        <ele>473</ele>
        <time>2022-12-03T08:49:01Z</time>
      </trkpt>
      <trkpt lat="44.74969" lon="5.17506">
        <ele>472</ele>
        <time>2022-12-03T08:49:01Z</time>
      </trkpt>
      <trkpt lat="44.74978" lon="5.1751">
        <ele>475</ele>
        <time>2022-12-03T08:49:01Z</time>
      </trkpt>
      <trkpt lat="44.74987" lon="5.17514">
        <ele>477</ele>
        <time>2022-12-03T08:49:01Z</time>
      </trkpt>
      <trkpt lat="44.74996" lon="5.17517">
        <ele>479</ele>
        <time>2022-12-03T08:49:01Z</time>
      </trkpt>
      <trkpt lat="44.75005" lon="5.17521">
        <ele>482</ele>
        <time>2022-12-03T08:49:01Z</time>
      </trkpt>
      <trkpt lat="44.75012" lon="5.17528">
        <ele>482</ele>
        <time>2022-12-03T08:49:01Z</time>
      </trkpt>
      <trkpt lat="44.75013" lon="5.1754">
        <ele>482</ele>
        <time>2022-12-03T08:49:01Z</time>
      </trkpt>
      <trkpt lat="44.75013" lon="5.17553">
        <ele>481</ele>
        <time>2022-12-03T08:49:01Z</time>
      </trkpt>
      <trkpt lat="44.75011" lon="5.17565">
        <ele>479</ele>
        <time>2022-12-03T08:49:01Z</time>
      </trkpt>
      <trkpt lat="44.75008" lon="5.17578">
        <ele>477</ele>
        <time>2022-12-03T08:49:01Z</time>
      </trkpt>
      <trkpt lat="44.75005" lon="5.1759">
        <ele>475</ele>
        <time>2022-12-03T08:49:01Z</time>
      </trkpt>
      <trkpt lat="44.75003" lon="5.17603">
        <ele>473</ele>
        <time>2022-12-03T08:49:01Z</time>
      </trkpt>
      <trkpt lat="44.75003" lon="5.17615">
        <ele>472</ele>
        <time>2022-12-03T08:49:01Z</time>
      </trkpt>
      <trkpt lat="44.75002" lon="5.17628">
        <ele>470</ele>
        <time>2022-12-03T08:49:01Z</time>
      </trkpt>
      <trkpt lat="44.75009" lon="5.17635">
        <ele>471</ele>
        <time>2022-12-03T08:49:01Z</time>
      </trkpt>
      <trkpt lat="44.75018" lon="5.17638">
        <ele>473</ele>
        <time>2022-12-03T08:49:01Z</time>
      </trkpt>
      <trkpt lat="44.75027" lon="5.17639">
        <ele>475</ele>
        <time>2022-12-03T08:49:01Z</time>
      </trkpt>
      <trkpt lat="44.75036" lon="5.17636">
        <ele>477</ele>
        <time>2022-12-03T08:49:01Z</time>
      </trkpt>
      <trkpt lat="44.75045" lon="5.17637">
        <ele>479</ele>
        <time>2022-12-03T08:49:01Z</time>
      </trkpt>
      <trkpt lat="44.75049" lon="5.17646">
        <ele>480</ele>
        <time>2022-12-03T08:49:01Z</time>
      </trkpt>
      <trkpt lat="44.75046" lon="5.17659">
        <ele>478</ele>
        <time>2022-12-03T08:49:01Z</time>
      </trkpt>
      <trkpt lat="44.75044" lon="5.17671">
        <ele>476</ele>
        <time>2022-12-03T08:49:01Z</time>
      </trkpt>
      <trkpt lat="44.75046" lon="5.17684">
        <ele>476</ele>
        <time>2022-12-03T08:49:01Z</time>
      </trkpt>
      <trkpt lat="44.75045" lon="5.17697">
        <ele>475</ele>
        <time>2022-12-03T08:49:01Z</time>
      </trkpt>
      <trkpt lat="44.75051" lon="5.17735">
        <ele>475</ele>
        <time>2022-12-03T08:49:01Z</time>
      </trkpt>
      <trkpt lat="44.75051" lon="5.1776">
        <ele>474</ele>
        <time>2022-12-03T08:49:01Z</time>
      </trkpt>
      <trkpt lat="44.75052" lon="5.17773">
        <ele>474</ele>
        <time>2022-12-03T08:49:01Z</time>
      </trkpt>
      <trkpt lat="44.75052" lon="5.17798">
        <ele>473</ele>
        <time>2022-12-03T08:49:01Z</time>
      </trkpt>
      <trkpt lat="44.75044" lon="5.17835">
        <ele>470</ele>
        <time>2022-12-03T08:49:01Z</time>
      </trkpt>
      <trkpt lat="44.75042" lon="5.17848">
        <ele>468</ele>
        <time>2022-12-03T08:49:01Z</time>
      </trkpt>
      <trkpt lat="44.75041" lon="5.17861">
        <ele>468</ele>
        <time>2022-12-03T08:49:01Z</time>
      </trkpt>
      <trkpt lat="44.75043" lon="5.17873">
        <ele>467</ele>
        <time>2022-12-03T08:49:01Z</time>
      </trkpt>
      <trkpt lat="44.75058" lon="5.17902">
        <ele>469</ele>
        <time>2022-12-03T08:49:01Z</time>
      </trkpt>
      <trkpt lat="44.75071" lon="5.17916">
        <ele>470</ele>
        <time>2022-12-03T08:49:01Z</time>
      </trkpt>
      <trkpt lat="44.75073" lon="5.17929">
        <ele>470</ele>
        <time>2022-12-03T08:49:01Z</time>
      </trkpt>
      <trkpt lat="44.75073" lon="5.17941">
        <ele>469</ele>
        <time>2022-12-03T08:49:01Z</time>
      </trkpt>
      <trkpt lat="44.75068" lon="5.17954">
        <ele>467</ele>
        <time>2022-12-03T08:49:01Z</time>
      </trkpt>
      <trkpt lat="44.75061" lon="5.17959">
        <ele>467</ele>
        <time>2022-12-03T08:49:01Z</time>
      </trkpt>
      <trkpt lat="44.75052" lon="5.17962">
        <ele>467</ele>
        <time>2022-12-03T08:49:01Z</time>
      </trkpt>
      <trkpt lat="44.75045" lon="5.17968">
        <ele>467</ele>
        <time>2022-12-03T08:49:01Z</time>
      </trkpt>
      <trkpt lat="44.75036" lon="5.17987">
        <ele>470</ele>
        <time>2022-12-03T08:49:01Z</time>
      </trkpt>
      <trkpt lat="44.75029" lon="5.17993">
        <ele>471</ele>
        <time>2022-12-03T08:49:01Z</time>
      </trkpt>
      <trkpt lat="44.74986" lon="5.18079">
        <ele>479</ele>
        <time>2022-12-03T08:49:01Z</time>
      </trkpt>
      <trkpt lat="44.74977" lon="5.18081">
        <ele>478</ele>
        <time>2022-12-03T08:49:01Z</time>
      </trkpt>
      <trkpt lat="44.7497" lon="5.18087">
        <ele>478</ele>
        <time>2022-12-03T08:49:01Z</time>
      </trkpt>
      <trkpt lat="44.74961" lon="5.1809">
        <ele>477</ele>
        <time>2022-12-03T08:49:01Z</time>
      </trkpt>
      <trkpt lat="44.74952" lon="5.18096">
        <ele>477</ele>
        <time>2022-12-03T08:49:01Z</time>
      </trkpt>
      <trkpt lat="44.74934" lon="5.18101">
        <ele>477</ele>
        <time>2022-12-03T08:49:01Z</time>
      </trkpt>
      <trkpt lat="44.74925" lon="5.18101">
        <ele>476</ele>
        <time>2022-12-03T08:49:01Z</time>
      </trkpt>
      <trkpt lat="44.74907" lon="5.18106">
        <ele>476</ele>
        <time>2022-12-03T08:49:01Z</time>
      </trkpt>
      <trkpt lat="44.74898" lon="5.18106">
        <ele>477</ele>
        <time>2022-12-03T08:49:01Z</time>
      </trkpt>
      <trkpt lat="44.74893" lon="5.18096">
        <ele>477</ele>
        <time>2022-12-03T08:49:01Z</time>
      </trkpt>
      <trkpt lat="44.74894" lon="5.18084">
        <ele>476</ele>
        <time>2022-12-03T08:49:01Z</time>
      </trkpt>
      <trkpt lat="44.74896" lon="5.18071">
        <ele>476</ele>
        <time>2022-12-03T08:49:01Z</time>
      </trkpt>
      <trkpt lat="44.74901" lon="5.18059">
        <ele>477</ele>
        <time>2022-12-03T08:49:01Z</time>
      </trkpt>
      <trkpt lat="44.74925" lon="5.18006">
        <ele>480</ele>
        <time>2022-12-03T08:49:01Z</time>
      </trkpt>
      <trkpt lat="44.74928" lon="5.17994">
        <ele>481</ele>
        <time>2022-12-03T08:49:01Z</time>
      </trkpt>
      <trkpt lat="44.74932" lon="5.17985">
        <ele>481</ele>
        <time>2022-12-03T08:49:01Z</time>
      </trkpt>
      <trkpt lat="44.7494" lon="5.17947">
        <ele>483</ele>
        <time>2022-12-03T08:49:01Z</time>
      </trkpt>
      <trkpt lat="44.74941" lon="5.17922">
        <ele>483</ele>
        <time>2022-12-03T08:49:01Z</time>
      </trkpt>
      <trkpt lat="44.74937" lon="5.17896">
        <ele>485</ele>
        <time>2022-12-03T08:49:01Z</time>
      </trkpt>
      <trkpt lat="44.7493" lon="5.1789">
        <ele>488</ele>
        <time>2022-12-03T08:49:01Z</time>
      </trkpt>
      <trkpt lat="44.74926" lon="5.1788">
        <ele>489</ele>
        <time>2022-12-03T08:49:01Z</time>
      </trkpt>
      <trkpt lat="44.74926" lon="5.17867">
        <ele>486</ele>
        <time>2022-12-03T08:49:01Z</time>
      </trkpt>
      <trkpt lat="44.74922" lon="5.17858">
        <ele>487</ele>
        <time>2022-12-03T08:49:01Z</time>
      </trkpt>
      <trkpt lat="44.7492" lon="5.17845">
        <ele>485</ele>
        <time>2022-12-03T08:49:01Z</time>
      </trkpt>
      <trkpt lat="44.74899" lon="5.17793">
        <ele>484</ele>
        <time>2022-12-03T08:49:01Z</time>
      </trkpt>
      <trkpt lat="44.74846" lon="5.1774">
        <ele>482</ele>
        <time>2022-12-03T08:49:01Z</time>
      </trkpt>
      <trkpt lat="44.74837" lon="5.1774">
        <ele>482</ele>
        <time>2022-12-03T08:49:01Z</time>
      </trkpt>
      <trkpt lat="44.74828" lon="5.17742">
        <ele>482</ele>
        <time>2022-12-03T08:49:01Z</time>
      </trkpt>
      <trkpt lat="44.74824" lon="5.17752">
        <ele>484</ele>
        <time>2022-12-03T08:49:01Z</time>
      </trkpt>
      <trkpt lat="44.7481" lon="5.17764">
        <ele>485</ele>
        <time>2022-12-03T08:49:01Z</time>
      </trkpt>
      <trkpt lat="44.74798" lon="5.17782">
        <ele>488</ele>
        <time>2022-12-03T08:49:01Z</time>
      </trkpt>
      <trkpt lat="44.74793" lon="5.17791">
        <ele>490</ele>
        <time>2022-12-03T08:49:01Z</time>
      </trkpt>
      <trkpt lat="44.74779" lon="5.17803">
        <ele>491</ele>
        <time>2022-12-03T08:49:01Z</time>
      </trkpt>
      <trkpt lat="44.7477" lon="5.17806">
        <ele>491</ele>
        <time>2022-12-03T08:49:01Z</time>
      </trkpt>
      <trkpt lat="44.74757" lon="5.17818">
        <ele>492</ele>
        <time>2022-12-03T08:49:01Z</time>
      </trkpt>
      <trkpt lat="44.74736" lon="5.17836">
        <ele>496</ele>
        <time>2022-12-03T08:49:01Z</time>
      </trkpt>
      <trkpt lat="44.74727" lon="5.17838">
        <ele>497</ele>
        <time>2022-12-03T08:49:01Z</time>
      </trkpt>
      <trkpt lat="44.7472" lon="5.17844">
        <ele>499</ele>
        <time>2022-12-03T08:49:01Z</time>
      </trkpt>
      <trkpt lat="44.74706" lon="5.17859">
        <ele>504</ele>
        <time>2022-12-03T08:49:01Z</time>
      </trkpt>
      <trkpt lat="44.74699" lon="5.17865">
        <ele>506</ele>
        <time>2022-12-03T08:49:01Z</time>
      </trkpt>
      <trkpt lat="44.7469" lon="5.17868">
        <ele>507</ele>
        <time>2022-12-03T08:49:01Z</time>
      </trkpt>
      <trkpt lat="44.74685" lon="5.17877">
        <ele>509</ele>
        <time>2022-12-03T08:49:01Z</time>
      </trkpt>
      <trkpt lat="44.74678" lon="5.17883">
        <ele>511</ele>
        <time>2022-12-03T08:49:01Z</time>
      </trkpt>
      <trkpt lat="44.74671" lon="5.17892">
        <ele>514</ele>
        <time>2022-12-03T08:49:01Z</time>
      </trkpt>
      <trkpt lat="44.74658" lon="5.17904">
        <ele>517</ele>
        <time>2022-12-03T08:49:01Z</time>
      </trkpt>
      <trkpt lat="44.74649" lon="5.17907">
        <ele>518</ele>
        <time>2022-12-03T08:49:01Z</time>
      </trkpt>
      <trkpt lat="44.7464" lon="5.17906">
        <ele>518</ele>
        <time>2022-12-03T08:49:01Z</time>
      </trkpt>
      <trkpt lat="44.74633" lon="5.179">
        <ele>517</ele>
        <time>2022-12-03T08:49:01Z</time>
      </trkpt>
      <trkpt lat="44.74629" lon="5.1789">
        <ele>516</ele>
        <time>2022-12-03T08:49:01Z</time>
      </trkpt>
      <trkpt lat="44.74627" lon="5.17877">
        <ele>515</ele>
        <time>2022-12-03T08:49:01Z</time>
      </trkpt>
      <trkpt lat="44.74628" lon="5.1784">
        <ele>516</ele>
        <time>2022-12-03T08:49:01Z</time>
      </trkpt>
      <trkpt lat="44.74624" lon="5.17814">
        <ele>519</ele>
        <time>2022-12-03T08:49:01Z</time>
      </trkpt>
      <trkpt lat="44.74622" lon="5.17801">
        <ele>521</ele>
        <time>2022-12-03T08:49:01Z</time>
      </trkpt>
      <trkpt lat="44.74625" lon="5.17688">
        <ele>519</ele>
        <time>2022-12-03T08:49:01Z</time>
      </trkpt>
      <trkpt lat="44.74621" lon="5.17662">
        <ele>520</ele>
        <time>2022-12-03T08:49:01Z</time>
      </trkpt>
      <trkpt lat="44.74604" lon="5.17621">
        <ele>524</ele>
        <time>2022-12-03T08:49:01Z</time>
      </trkpt>
      <trkpt lat="44.74604" lon="5.17608">
        <ele>523</ele>
        <time>2022-12-03T08:49:01Z</time>
      </trkpt>
      <trkpt lat="44.74603" lon="5.17595">
        <ele>523</ele>
        <time>2022-12-03T08:49:01Z</time>
      </trkpt>
      <trkpt lat="44.74603" lon="5.17583">
        <ele>523</ele>
        <time>2022-12-03T08:49:01Z</time>
      </trkpt>
      <trkpt lat="44.74601" lon="5.1757">
        <ele>523</ele>
        <time>2022-12-03T08:49:01Z</time>
      </trkpt>
      <trkpt lat="44.74601" lon="5.17557">
        <ele>522</ele>
        <time>2022-12-03T08:49:01Z</time>
      </trkpt>
      <trkpt lat="44.74599" lon="5.17545">
        <ele>521</ele>
        <time>2022-12-03T08:49:01Z</time>
      </trkpt>
      <trkpt lat="44.746" lon="5.17532">
        <ele>519</ele>
        <time>2022-12-03T08:49:01Z</time>
      </trkpt>
      <trkpt lat="44.74598" lon="5.17519">
        <ele>518</ele>
        <time>2022-12-03T08:49:01Z</time>
      </trkpt>
      <trkpt lat="44.74591" lon="5.17513">
        <ele>518</ele>
        <time>2022-12-03T08:49:01Z</time>
      </trkpt>
      <trkpt lat="44.74588" lon="5.17503">
        <ele>522</ele>
        <time>2022-12-03T08:49:01Z</time>
      </trkpt>
      <trkpt lat="44.74555" lon="5.17514">
        <ele>524</ele>
        <time>2022-12-03T08:49:01Z</time>
      </trkpt>
      <trkpt lat="44.74546" lon="5.17513">
        <ele>524</ele>
        <time>2022-12-03T08:49:01Z</time>
      </trkpt>
      <trkpt lat="44.74537" lon="5.17516">
        <ele>525</ele>
        <time>2022-12-03T08:49:01Z</time>
      </trkpt>
      <trkpt lat="44.74528" lon="5.17516">
        <ele>525</ele>
        <time>2022-12-03T08:49:01Z</time>
      </trkpt>
      <trkpt lat="44.74501" lon="5.17524">
        <ele>528</ele>
        <time>2022-12-03T08:49:01Z</time>
      </trkpt>
      <trkpt lat="44.74494" lon="5.1753">
        <ele>529</ele>
        <time>2022-12-03T08:49:01Z</time>
      </trkpt>
      <trkpt lat="44.74485" lon="5.17532">
        <ele>530</ele>
        <time>2022-12-03T08:49:01Z</time>
      </trkpt>
      <trkpt lat="44.74478" lon="5.17538">
        <ele>531</ele>
        <time>2022-12-03T08:49:01Z</time>
      </trkpt>
      <trkpt lat="44.74471" lon="5.17544">
        <ele>533</ele>
        <time>2022-12-03T08:49:01Z</time>
      </trkpt>
      <trkpt lat="44.74462" lon="5.17544">
        <ele>534</ele>
        <time>2022-12-03T08:49:01Z</time>
      </trkpt>
      <trkpt lat="44.74453" lon="5.17547">
        <ele>536</ele>
        <time>2022-12-03T08:49:01Z</time>
      </trkpt>
      <trkpt lat="44.74444" lon="5.17546">
        <ele>538</ele>
        <time>2022-12-03T08:49:01Z</time>
      </trkpt>
      <trkpt lat="44.74435" lon="5.17543">
        <ele>539</ele>
        <time>2022-12-03T08:49:01Z</time>
      </trkpt>
      <trkpt lat="44.74429" lon="5.17536">
        <ele>540</ele>
        <time>2022-12-03T08:49:01Z</time>
      </trkpt>
      <trkpt lat="44.7442" lon="5.17517">
        <ele>540</ele>
        <time>2022-12-03T08:49:01Z</time>
      </trkpt>
      <trkpt lat="44.74418" lon="5.17504">
        <ele>540</ele>
        <time>2022-12-03T08:49:01Z</time>
      </trkpt>
      <trkpt lat="44.74419" lon="5.17479">
        <ele>538</ele>
        <time>2022-12-03T08:49:01Z</time>
      </trkpt>
      <trkpt lat="44.74417" lon="5.17466">
        <ele>539</ele>
        <time>2022-12-03T08:49:01Z</time>
      </trkpt>
      <trkpt lat="44.74413" lon="5.17456">
        <ele>540</ele>
        <time>2022-12-03T08:49:01Z</time>
      </trkpt>
      <trkpt lat="44.74408" lon="5.17446">
        <ele>542</ele>
        <time>2022-12-03T08:49:01Z</time>
      </trkpt>
      <trkpt lat="44.74406" lon="5.17434">
        <ele>542</ele>
        <time>2022-12-03T08:49:01Z</time>
      </trkpt>
      <trkpt lat="44.74402" lon="5.17424">
        <ele>543</ele>
        <time>2022-12-03T08:49:01Z</time>
      </trkpt>
      <trkpt lat="44.744" lon="5.17411">
        <ele>542</ele>
        <time>2022-12-03T08:49:01Z</time>
      </trkpt>
      <trkpt lat="44.74396" lon="5.17402">
        <ele>541</ele>
        <time>2022-12-03T08:49:01Z</time>
      </trkpt>
      <trkpt lat="44.74392" lon="5.17392">
        <ele>539</ele>
        <time>2022-12-03T08:49:01Z</time>
      </trkpt>
      <trkpt lat="44.74374" lon="5.17385">
        <ele>538</ele>
        <time>2022-12-03T08:49:01Z</time>
      </trkpt>
      <trkpt lat="44.74365" lon="5.17381">
        <ele>535</ele>
        <time>2022-12-03T08:49:01Z</time>
      </trkpt>
      <trkpt lat="44.74356" lon="5.17381">
        <ele>533</ele>
        <time>2022-12-03T08:49:01Z</time>
      </trkpt>
      <trkpt lat="44.7434" lon="5.17392">
        <ele>535</ele>
        <time>2022-12-03T08:49:01Z</time>
      </trkpt>
      <trkpt lat="44.74333" lon="5.17402">
        <ele>537</ele>
        <time>2022-12-03T08:49:01Z</time>
      </trkpt>
      <trkpt lat="44.74309" lon="5.17448">
        <ele>543</ele>
        <time>2022-12-03T08:49:01Z</time>
      </trkpt>
      <trkpt lat="44.74302" lon="5.17454">
        <ele>543</ele>
        <time>2022-12-03T08:49:01Z</time>
      </trkpt>
      <trkpt lat="44.74298" lon="5.17463">
        <ele>545</ele>
        <time>2022-12-03T08:49:01Z</time>
      </trkpt>
      <trkpt lat="44.74291" lon="5.17469">
        <ele>545</ele>
        <time>2022-12-03T08:49:01Z</time>
      </trkpt>
      <trkpt lat="44.74286" lon="5.17478">
        <ele>547</ele>
        <time>2022-12-03T08:49:01Z</time>
      </trkpt>
      <trkpt lat="44.74279" lon="5.17484">
        <ele>546</ele>
        <time>2022-12-03T08:49:01Z</time>
      </trkpt>
      <trkpt lat="44.74274" lon="5.17493">
        <ele>546</ele>
        <time>2022-12-03T08:49:01Z</time>
      </trkpt>
      <trkpt lat="44.74265" lon="5.17499">
        <ele>545</ele>
        <time>2022-12-03T08:49:01Z</time>
      </trkpt>
      <trkpt lat="44.74247" lon="5.17527">
        <ele>547</ele>
        <time>2022-12-03T08:49:01Z</time>
      </trkpt>
      <trkpt lat="44.74242" lon="5.17536">
        <ele>549</ele>
        <time>2022-12-03T08:49:01Z</time>
      </trkpt>
      <trkpt lat="44.74235" lon="5.17545">
        <ele>549</ele>
        <time>2022-12-03T08:49:01Z</time>
      </trkpt>
      <trkpt lat="44.7423" lon="5.17554">
        <ele>550</ele>
        <time>2022-12-03T08:49:01Z</time>
      </trkpt>
      <trkpt lat="44.74223" lon="5.1756">
        <ele>549</ele>
        <time>2022-12-03T08:49:01Z</time>
      </trkpt>
      <trkpt lat="44.74181" lon="5.17621">
        <ele>552</ele>
        <time>2022-12-03T08:49:01Z</time>
      </trkpt>
      <trkpt lat="44.74174" lon="5.17627">
        <ele>551</ele>
        <time>2022-12-03T08:49:01Z</time>
      </trkpt>
      <trkpt lat="44.7412" lon="5.17719">
        <ele>552</ele>
        <time>2022-12-03T08:49:01Z</time>
      </trkpt>
      <trkpt lat="44.74113" lon="5.17725">
        <ele>550</ele>
        <time>2022-12-03T08:49:01Z</time>
      </trkpt>
      <trkpt lat="44.74087" lon="5.17771">
        <ele>550</ele>
        <time>2022-12-03T08:49:01Z</time>
      </trkpt>
      <trkpt lat="44.74085" lon="5.17784">
        <ele>551</ele>
        <time>2022-12-03T08:49:01Z</time>
      </trkpt>
      <trkpt lat="44.74078" lon="5.1779">
        <ele>550</ele>
        <time>2022-12-03T08:49:01Z</time>
      </trkpt>
      <trkpt lat="44.74049" lon="5.17848">
        <ele>551</ele>
        <time>2022-12-03T08:49:01Z</time>
      </trkpt>
      <trkpt lat="44.74047" lon="5.17861">
        <ele>552</ele>
        <time>2022-12-03T08:49:01Z</time>
      </trkpt>
      <trkpt lat="44.74042" lon="5.17873">
        <ele>552</ele>
        <time>2022-12-03T08:49:01Z</time>
      </trkpt>
      <trkpt lat="44.74037" lon="5.17898">
        <ele>554</ele>
        <time>2022-12-03T08:49:01Z</time>
      </trkpt>
      <trkpt lat="44.74036" lon="5.17911">
        <ele>556</ele>
        <time>2022-12-03T08:49:01Z</time>
      </trkpt>
      <trkpt lat="44.74034" lon="5.17923">
        <ele>556</ele>
        <time>2022-12-03T08:49:01Z</time>
      </trkpt>
      <trkpt lat="44.74033" lon="5.17974">
        <ele>559</ele>
        <time>2022-12-03T08:49:01Z</time>
      </trkpt>
      <trkpt lat="44.74034" lon="5.17986">
        <ele>561</ele>
        <time>2022-12-03T08:49:01Z</time>
      </trkpt>
      <trkpt lat="44.74033" lon="5.18037">
        <ele>564</ele>
        <time>2022-12-03T08:49:01Z</time>
      </trkpt>
      <trkpt lat="44.74028" lon="5.18049">
        <ele>563</ele>
        <time>2022-12-03T08:49:01Z</time>
      </trkpt>
      <trkpt lat="44.74028" lon="5.18062">
        <ele>564</ele>
        <time>2022-12-03T08:49:01Z</time>
      </trkpt>
      <trkpt lat="44.74023" lon="5.18087">
        <ele>564</ele>
        <time>2022-12-03T08:49:01Z</time>
      </trkpt>
      <trkpt lat="44.74018" lon="5.18096">
        <ele>563</ele>
        <time>2022-12-03T08:49:01Z</time>
      </trkpt>
      <trkpt lat="44.73984" lon="5.18129">
        <ele>560</ele>
        <time>2022-12-03T08:49:01Z</time>
      </trkpt>
      <trkpt lat="44.73974" lon="5.18132">
        <ele>558</ele>
        <time>2022-12-03T08:49:01Z</time>
      </trkpt>
      <trkpt lat="44.73968" lon="5.18138">
        <ele>558</ele>
        <time>2022-12-03T08:49:01Z</time>
      </trkpt>
      <trkpt lat="44.73959" lon="5.18134">
        <ele>556</ele>
        <time>2022-12-03T08:49:01Z</time>
      </trkpt>
      <trkpt lat="44.7395" lon="5.18137">
        <ele>555</ele>
        <time>2022-12-03T08:49:01Z</time>
      </trkpt>
      <trkpt lat="44.7394" lon="5.18143">
        <ele>555</ele>
        <time>2022-12-03T08:49:01Z</time>
      </trkpt>
      <trkpt lat="44.73931" lon="5.18145">
        <ele>554</ele>
        <time>2022-12-03T08:49:01Z</time>
      </trkpt>
      <trkpt lat="44.73924" lon="5.18151">
        <ele>554</ele>
        <time>2022-12-03T08:49:01Z</time>
      </trkpt>
      <trkpt lat="44.73915" lon="5.18154">
        <ele>553</ele>
        <time>2022-12-03T08:49:01Z</time>
      </trkpt>
      <trkpt lat="44.73906" lon="5.1816">
        <ele>552</ele>
        <time>2022-12-03T08:49:01Z</time>
      </trkpt>
      <trkpt lat="44.73888" lon="5.18165">
        <ele>551</ele>
        <time>2022-12-03T08:49:01Z</time>
      </trkpt>
      <trkpt lat="44.73881" lon="5.18171">
        <ele>550</ele>
        <time>2022-12-03T08:49:01Z</time>
      </trkpt>
      <trkpt lat="44.73872" lon="5.18171">
        <ele>549</ele>
        <time>2022-12-03T08:49:01Z</time>
      </trkpt>
      <trkpt lat="44.73852" lon="5.18188">
        <ele>547</ele>
        <time>2022-12-03T08:49:01Z</time>
      </trkpt>
      <trkpt lat="44.73845" lon="5.18191">
        <ele>546</ele>
        <time>2022-12-03T08:49:01Z</time>
      </trkpt>
      <trkpt lat="44.73827" lon="5.1819">
        <ele>544</ele>
        <time>2022-12-03T08:49:01Z</time>
      </trkpt>
      <trkpt lat="44.73818" lon="5.18187">
        <ele>543</ele>
        <time>2022-12-03T08:49:01Z</time>
      </trkpt>
      <trkpt lat="44.73805" lon="5.18173">
        <ele>543</ele>
        <time>2022-12-03T08:49:01Z</time>
      </trkpt>
      <trkpt lat="44.73796" lon="5.1817">
        <ele>542</ele>
        <time>2022-12-03T08:49:01Z</time>
      </trkpt>
      <trkpt lat="44.73658" lon="5.17966">
        <ele>542</ele>
        <time>2022-12-03T08:49:01Z</time>
      </trkpt>
      <trkpt lat="44.73549" lon="5.17936">
        <ele>541</ele>
        <time>2022-12-03T08:49:01Z</time>
      </trkpt>
      <trkpt lat="44.73532" lon="5.17883">
        <ele>541</ele>
        <time>2022-12-03T08:49:01Z</time>
      </trkpt>
      <trkpt lat="44.73454" lon="5.17851">
        <ele>540</ele>
        <time>2022-12-03T08:49:01Z</time>
      </trkpt>
      <trkpt lat="44.73383" lon="5.17778">
        <ele>539</ele>
        <time>2022-12-03T08:49:01Z</time>
      </trkpt>
      <trkpt lat="44.73204" lon="5.17778">
        <ele>538</ele>
        <time>2022-12-03T08:49:01Z</time>
      </trkpt>
      <trkpt lat="44.73151" lon="5.1769">
        <ele>538</ele>
        <time>2022-12-03T08:49:01Z</time>
      </trkpt>
      <trkpt lat="44.73088" lon="5.17705">
        <ele>538</ele>
        <time>2022-12-03T08:49:01Z</time>
      </trkpt>
      <trkpt lat="44.73001" lon="5.1775">
        <ele>538</ele>
        <time>2022-12-03T08:49:01Z</time>
      </trkpt>
      <trkpt lat="44.72921" lon="5.17911">
        <ele>538</ele>
        <time>2022-12-03T08:49:01Z</time>
      </trkpt>
      <trkpt lat="44.72788" lon="5.18009">
        <ele>538</ele>
        <time>2022-12-03T08:49:01Z</time>
      </trkpt>
      <trkpt lat="44.72764" lon="5.18095">
        <ele>538</ele>
        <time>2022-12-03T08:49:01Z</time>
      </trkpt>
      <trkpt lat="44.72632" lon="5.18282">
        <ele>538</ele>
        <time>2022-12-03T08:49:01Z</time>
      </trkpt>
      <trkpt lat="44.72706" lon="5.18295">
        <ele>538</ele>
        <time>2022-12-03T08:49:01Z</time>
      </trkpt>
      <trkpt lat="44.72631" lon="5.184">
        <ele>538</ele>
        <time>2022-12-03T08:49:01Z</time>
      </trkpt>
      <trkpt lat="44.72594" lon="5.18484">
        <ele>538</ele>
        <time>2022-12-03T08:49:01Z</time>
      </trkpt>
      <trkpt lat="44.72584" lon="5.18524">
        <ele>537</ele>
        <time>2022-12-03T08:49:01Z</time>
      </trkpt>
      <trkpt lat="44.72538" lon="5.18514">
        <ele>537</ele>
        <time>2022-12-03T08:49:01Z</time>
      </trkpt>
      <trkpt lat="44.72506" lon="5.18552">
        <ele>537</ele>
        <time>2022-12-03T08:49:01Z</time>
      </trkpt>
      <trkpt lat="44.72445" lon="5.18666">
        <ele>537</ele>
        <time>2022-12-03T08:49:01Z</time>
      </trkpt>
      <trkpt lat="44.72454" lon="5.1866">
        <ele>537</ele>
        <time>2022-12-03T08:49:01Z</time>
      </trkpt>
      <trkpt lat="44.72454" lon="5.18657">
        <ele>537</ele>
        <time>2022-12-03T08:49:01Z</time>
      </trkpt>
    </trkseg>
  </trk>
</gpx>